Wetterdaten: aktuell Sonntag, 25.10.2020 04:06
Datum Zeit Temp. Aussen Temp. o. S. Temp +5cm Feuchte Auss Luftdruck Regen Sonnenschein Regendauer Solar Windben Empfang
25.10.2020 04:06 14,6 C 13,9 C 12,8 C 85 % 1004,4 hPa 0,0 l/m 0 min 0 min 0 W/m 22,5 km/h (4 Bft) 95,74 %
25.10.2020 04:04 14,7 C 13,9 C 12,8 C 85 % 1004,5 hPa 0,0 l/m 0 min 0 min 0 W/m 19,3 km/h (3 Bft) 93,62 %
25.10.2020 04:02 14,7 C 13,9 C 12,8 C 85 % 1004,5 hPa 0,0 l/m 0 min 0 min 0 W/m 16,1 km/h (3 Bft) 92,86 %
25.10.2020 04:00 14,8 C 13,9 C 12,8 C 85 % 1004,5 hPa 0,0 l/m 0 min 0 min 0 W/m 3,2 km/h (1 Bft) 100,00 %
25.10.2020 03:58 14,8 C 13,9 C 12,8 C 85 % 1004,5 hPa 0,0 l/m 0 min 0 min 0 W/m 12,9 km/h (3 Bft) 100,00 %
25.10.2020 03:56 14,8 C 13,9 C 12,8 C 85 % 1004,5 hPa 0,0 l/m 0 min 0 min 0 W/m 16,1 km/h (3 Bft) 97,92 %
25.10.2020 03:54 14,9 C 13,9 C 12,8 C 84 % 1004,6 hPa 0,0 l/m 0 min 0 min 0 W/m 22,5 km/h (4 Bft) 100,00 %
25.10.2020 03:52 14,9 C 13,9 C 12,8 C 84 % 1004,6 hPa 0,0 l/m 0 min 0 min 0 W/m 22,5 km/h (4 Bft) 100,00 %
25.10.2020 03:50 14,9 C 13,9 C 12,8 C 84 % 1004,6 hPa 0,0 l/m 0 min 0 min 0 W/m 12,9 km/h (3 Bft) 100,00 %
25.10.2020 03:48 14,9 C 13,9 C 12,8 C 84 % 1004,6 hPa 0,0 l/m 0 min 0 min 0 W/m 16,1 km/h (3 Bft) 100,00 %
25.10.2020 03:46 15,0 C 13,9 C 12,8 C 84 % 1004,7 hPa 0,0 l/m 0 min 0 min 0 W/m 16,1 km/h (3 Bft) 100,00 %
25.10.2020 03:44 15,0 C 13,9 C 12,8 C 84 % 1004,7 hPa 0,0 l/m 0 min 0 min 0 W/m 12,9 km/h (3 Bft) 100,00 %
25.10.2020 03:42 15,0 C 13,9 C 12,8 C 84 % 1004,7 hPa 0,0 l/m 0 min 0 min 0 W/m 0,0 km/h (0 Bft) 100,00 %
25.10.2020 03:40 15,0 C 13,9 C 12,8 C 84 % 1004,8 hPa 0,0 l/m 0 min 0 min 0 W/m 3,2 km/h (1 Bft) 100,00 %
25.10.2020 03:38 15,0 C 13,9 C 12,8 C 84 % 1004,8 hPa 0,0 l/m 0 min 0 min 0 W/m 19,3 km/h (3 Bft) 100,00 %
25.10.2020 03:36 15,1 C 13,9 C 12,8 C 84 % 1004,8 hPa 0,0 l/m 0 min 0 min 0 W/m 0,0 km/h (0 Bft) 100,00 %
25.10.2020 03:34 15,1 C 14,4 C 12,8 C 84 % 1004,9 hPa 0,0 l/m 0 min 0 min 0 W/m 0,0 km/h (0 Bft) 100,00 %
25.10.2020 03:32 15,1 C 14,4 C 12,8 C 84 % 1004,9 hPa 0,0 l/m 0 min 0 min 0 W/m 6,4 km/h (2 Bft) 97,92 %
25.10.2020 03:30 15,1 C 14,4 C 13,4 C 84 % 1004,9 hPa 0,0 l/m 0 min 0 min 0 W/m 12,9 km/h (3 Bft) 97,87 %
25.10.2020 03:28 15,1 C 14,4 C 13,4 C 84 % 1004,9 hPa 0,0 l/m 0 min 0 min 0 W/m 16,1 km/h (3 Bft) 100,00 %
25.10.2020 03:26 15,1 C 14,4 C 13,4 C 83 % 1004,9 hPa 0,0 l/m 0 min 0 min 0 W/m 16,1 km/h (3 Bft) 100,00 %
25.10.2020 03:24 15,1 C 14,4 C 13,4 C 83 % 1004,9 hPa 0,0 l/m 0 min 0 min 0 W/m 16,1 km/h (3 Bft) 97,83 %
25.10.2020 03:22 15,1 C 14,4 C 13,4 C 83 % 1004,9 hPa 0,0 l/m 0 min 0 min 0 W/m 19,3 km/h (3 Bft) 97,92 %
25.10.2020 03:20 15,1 C 14,4 C 13,4 C 83 % 1005,0 hPa 0,0 l/m 0 min 0 min 0 W/m 19,3 km/h (3 Bft) 100,00 %
25.10.2020 03:18 15,1 C 14,4 C 13,4 C 83 % 1005,0 hPa 0,0 l/m 0 min 0 min 0 W/m 22,5 km/h (4 Bft) 100,00 %
25.10.2020 03:16 15,1 C 14,4 C 13,4 C 83 % 1005,0 hPa 0,0 l/m 0 min 0 min 0 W/m 22,5 km/h (4 Bft) 100,00 %
25.10.2020 03:14 15,1 C 14,4 C 13,4 C 83 % 1005,0 hPa 0,0 l/m 0 min 0 min 0 W/m 12,9 km/h (3 Bft) 97,87 %
25.10.2020 03:12 15,1 C 14,4 C 13,4 C 83 % 1005,1 hPa 0,0 l/m 0 min 0 min 0 W/m 12,9 km/h (3 Bft) 97,87 %
25.10.2020 03:10 15,1 C 14,4 C 13,4 C 83 % 1005,1 hPa 0,0 l/m 0 min 0 min 0 W/m 22,5 km/h (4 Bft) 97,87 %
25.10.2020 03:08 15,1 C 14,4 C 13,4 C 83 % 1005,1 hPa 0,0 l/m 0 min 0 min 0 W/m 22,5 km/h (4 Bft) 95,74 %
25.10.2020 03:06 15,1 C 14,4 C 13,4 C 83 % 1005,1 hPa 0,0 l/m 0 min 0 min 0 W/m 19,3 km/h (3 Bft) 97,83 %
25.10.2020 03:04 15,1 C 14,4 C 13,4 C 83 % 1005,1 hPa 0,0 l/m 0 min 0 min 0 W/m 32,2 km/h (5 Bft) 97,92 %
25.10.2020 03:02 15,1 C 14,4 C 13,4 C 83 % 1005,1 hPa 0,0 l/m 0 min 0 min 0 W/m 38,6 km/h (5 Bft) 98,00 %
25.10.2020 03:00 15,1 C 14,4 C 13,4 C 83 % 1005,1 hPa 0,0 l/m 0 min 0 min 0 W/m 32,2 km/h (5 Bft) 97,87 %
25.10.2020 02:58 15,1 C 14,4 C 13,4 C 83 % 1005,1 hPa 0,0 l/m 0 min 0 min 0 W/m 22,5 km/h (4 Bft) 97,67 %
25.10.2020 02:56 15,1 C 14,4 C 13,4 C 83 % 1005,1 hPa 0,0 l/m 0 min 0 min 0 W/m 9,7 km/h (2 Bft) 97,83 %
25.10.2020 02:54 15,1 C 14,4 C 13,4 C 83 % 1005,2 hPa 0,0 l/m 0 min 0 min 0 W/m 19,3 km/h (3 Bft) 97,87 %
25.10.2020 02:52 15,1 C 14,4 C 13,4 C 83 % 1005,2 hPa 0,0 l/m 0 min 0 min 0 W/m 19,3 km/h (3 Bft) 95,74 %
25.10.2020 02:50 15,1 C 14,4 C 13,4 C 83 % 1005,2 hPa 0,0 l/m 0 min 0 min 0 W/m 6,4 km/h (2 Bft) 97,87 %
25.10.2020 02:48 15,2 C 14,4 C 13,4 C 83 % 1005,1 hPa 0,0 l/m 0 min 0 min 0 W/m 16,1 km/h (3 Bft) 97,87 %
25.10.2020 02:46 15,1 C 14,4 C 13,4 C 83 % 1005,1 hPa 0,0 l/m 0 min 0 min 0 W/m 25,7 km/h (4 Bft) 97,87 %
25.10.2020 02:44 15,2 C 14,4 C 13,4 C 83 % 1005,2 hPa 0,0 l/m 0 min 0 min 0 W/m 45,1 km/h (6 Bft) 97,87 %
25.10.2020 02:42 15,2 C 14,4 C 13,4 C 83 % 1005,2 hPa 0,0 l/m 0 min 0 min 0 W/m 29,0 km/h (5 Bft) 97,92 %
25.10.2020 02:40 15,2 C 14,4 C 13,4 C 83 % 1005,3 hPa 0,0 l/m 0 min 0 min 0 W/m 19,3 km/h (3 Bft) 97,92 %
25.10.2020 02:38 15,2 C 14,4 C 13,4 C 83 % 1005,3 hPa 0,0 l/m 0 min 0 min 0 W/m 22,5 km/h (4 Bft) 97,92 %
25.10.2020 02:36 15,3 C 14,4 C 13,4 C 83 % 1005,2 hPa 0,0 l/m 0 min 0 min 0 W/m 22,5 km/h (4 Bft) 95,74 %
25.10.2020 02:34 15,3 C 14,4 C 13,4 C 83 % 1005,2 hPa 0,0 l/m 0 min 0 min 0 W/m 25,7 km/h (4 Bft) 97,87 %
25.10.2020 02:32 15,3 C 14,4 C 13,4 C 83 % 1005,3 hPa 0,0 l/m 0 min 0 min 0 W/m 45,1 km/h (6 Bft) 97,96 %
25.10.2020 02:30 15,3 C 14,4 C 13,4 C 83 % 1005,3 hPa 0,0 l/m 0 min 0 min 0 W/m 22,5 km/h (4 Bft) 100,00 %
25.10.2020 02:28 15,3 C 14,4 C 13,4 C 83 % 1005,4 hPa 0,0 l/m 0 min 0 min 0 W/m 16,1 km/h (3 Bft) 100,00 %
25.10.2020 02:26 15,3 C 14,4 C 13,4 C 83 % 1005,3 hPa 0,0 l/m 0 min 0 min 0 W/m 16,1 km/h (3 Bft) 100,00 %
25.10.2020 02:24 15,3 C 14,4 C 13,4 C 83 % 1005,4 hPa 0,0 l/m 0 min 0 min 0 W/m 22,5 km/h (4 Bft) 100,00 %
25.10.2020 02:22 15,4 C 14,4 C 13,4 C 83 % 1005,3 hPa 0,0 l/m 0 min 0 min 0 W/m 19,3 km/h (3 Bft) 100,00 %
25.10.2020 02:20 15,4 C 14,4 C 13,4 C 83 % 1005,4 hPa 0,0 l/m 0 min 0 min 0 W/m 32,2 km/h (5 Bft) 100,00 %
25.10.2020 02:18 15,4 C 14,4 C 13,4 C 83 % 1005,5 hPa 0,0 l/m 0 min 0 min 0 W/m 41,8 km/h (6 Bft) 100,00 %
25.10.2020 02:16 15,4 C 14,4 C 13,4 C 83 % 1005,5 hPa 0,0 l/m 0 min 0 min 0 W/m 22,5 km/h (4 Bft) 100,00 %
25.10.2020 02:14 15,4 C 14,4 C 13,4 C 83 % 1005,7 hPa 0,0 l/m 0 min 0 min 0 W/m 25,7 km/h (4 Bft) 100,00 %
25.10.2020 02:12 15,4 C 14,4 C 13,4 C 83 % 1005,7 hPa 0,0 l/m 0 min 0 min 0 W/m 16,1 km/h (3 Bft) 100,00 %
25.10.2020 02:10 15,4 C 14,4 C 13,4 C 83 % 1005,6 hPa 0,0 l/m 0 min 0 min 0 W/m 35,4 km/h (5 Bft) 100,00 %
25.10.2020 02:08 15,4 C 14,4 C 13,4 C 83 % 1005,6 hPa 0,0 l/m 0 min 0 min 0 W/m 19,3 km/h (3 Bft) 100,00 %
25.10.2020 02:06 15,4 C 14,4 C 13,4 C 83 % 1005,6 hPa 0,0 l/m 0 min 0 min 0 W/m 12,9 km/h (3 Bft) 100,00 %
25.10.2020 02:04 15,4 C 14,4 C 13,4 C 83 % 1005,7 hPa 0,0 l/m 0 min 0 min 0 W/m 32,2 km/h (5 Bft) 98,92 %
25.10.2020 02:00 15,4 C 14,4 C 13,4 C 83 % 1005,8 hPa 0,0 l/m 0 min 0 min 0 W/m 22,5 km/h (4 Bft) 97,87 %
25.10.2020 02:58 15,4 C 14,4 C 13,4 C 83 % 1005,8 hPa 0,0 l/m 0 min 0 min 0 W/m 32,2 km/h (5 Bft) 97,83 %
25.10.2020 02:56 15,4 C 14,4 C 13,4 C 83 % 1005,8 hPa 0,0 l/m 0 min 0 min 0 W/m 16,1 km/h (3 Bft) 95,74 %
25.10.2020 02:54 15,4 C 14,4 C 13,4 C 83 % 1005,8 hPa 0,0 l/m 0 min 0 min 0 W/m 19,3 km/h (3 Bft) 97,87 %
25.10.2020 02:52 15,4 C 14,4 C 13,4 C 83 % 1005,8 hPa 0,0 l/m 0 min 0 min 0 W/m 25,7 km/h (4 Bft) 97,87 %
25.10.2020 02:50 15,4 C 15,0 C 13,4 C 83 % 1006,0 hPa 0,0 l/m 0 min 0 min 0 W/m 25,7 km/h (4 Bft) 95,74 %
25.10.2020 02:48 15,4 C 15,0 C 13,4 C 83 % 1006,0 hPa 0,0 l/m 0 min 0 min 0 W/m 35,4 km/h (5 Bft) 95,83 %
25.10.2020 02:46 15,4 C 14,4 C 13,4 C 83 % 1005,9 hPa 0,0 l/m 0 min 0 min 0 W/m 25,7 km/h (4 Bft) 95,83 %
25.10.2020 02:44 15,4 C 14,4 C 13,4 C 83 % 1005,9 hPa 0,0 l/m 0 min 0 min 0 W/m 35,4 km/h (5 Bft) 97,87 %
25.10.2020 02:42 15,4 C 14,4 C 13,4 C 83 % 1006,0 hPa 0,0 l/m 0 min 0 min 0 W/m 22,5 km/h (4 Bft) 97,92 %
25.10.2020 02:40 15,4 C 14,4 C 13,4 C 83 % 1006,1 hPa 0,0 l/m 0 min 0 min 0 W/m 29,0 km/h (5 Bft) 97,87 %
25.10.2020 02:38 15,5 C 14,4 C 13,4 C 83 % 1006,0 hPa 0,0 l/m 0 min 0 min 0 W/m 22,5 km/h (4 Bft) 95,83 %
25.10.2020 02:36 15,5 C 14,4 C 13,4 C 83 % 1006,0 hPa 0,0 l/m 0 min 0 min 0 W/m 19,3 km/h (3 Bft) 97,62 %
25.10.2020 02:34 15,5 C 14,4 C 13,4 C 83 % 1006,0 hPa 0,0 l/m 0 min 0 min 0 W/m 32,2 km/h (5 Bft) 97,83 %
25.10.2020 02:32 15,5 C 14,4 C 13,4 C 83 % 1006,2 hPa 0,0 l/m 0 min 0 min 0 W/m 32,2 km/h (5 Bft) 97,87 %
25.10.2020 02:30 15,5 C 14,4 C 13,4 C 83 % 1006,3 hPa 0,0 l/m 0 min 0 min 0 W/m 29,0 km/h (5 Bft) 97,87 %
25.10.2020 02:28 15,5 C 14,4 C 13,4 C 83 % 1006,3 hPa 0,0 l/m 0 min 0 min 0 W/m 29,0 km/h (5 Bft) 93,62 %
25.10.2020 02:26 15,5 C 14,4 C 13,4 C 83 % 1006,3 hPa 0,0 l/m 0 min 0 min 0 W/m 32,2 km/h (5 Bft) 97,87 %
25.10.2020 02:24 15,5 C 14,4 C 13,4 C 83 % 1006,4 hPa 0,0 l/m 0 min 0 min 0 W/m 35,4 km/h (5 Bft) 95,65 %
25.10.2020 02:22 15,5 C 15,0 C 13,4 C 83 % 1006,3 hPa 0,0 l/m 0 min 0 min 0 W/m 22,5 km/h (4 Bft) 95,83 %
25.10.2020 02:20 15,5 C 15,0 C 13,4 C 83 % 1006,4 hPa 0,0 l/m 0 min 0 min 0 W/m 25,7 km/h (4 Bft) 91,67 %
25.10.2020 02:18 15,5 C 15,0 C 13,4 C 83 % 1006,4 hPa 0,0 l/m 0 min 0 min 0 W/m 25,7 km/h (4 Bft) 95,83 %
25.10.2020 02:16 15,5 C 15,0 C 13,4 C 83 % 1006,4 hPa 0,0 l/m 0 min 0 min 0 W/m 22,5 km/h (4 Bft) 95,74 %
25.10.2020 02:14 15,5 C 15,0 C 13,4 C 83 % 1006,3 hPa 0,0 l/m 0 min 0 min 0 W/m 29,0 km/h (5 Bft) 95,92 %
25.10.2020 02:12 15,5 C 15,0 C 13,4 C 83 % 1006,5 hPa 0,0 l/m 0 min 0 min 0 W/m 22,5 km/h (4 Bft) 97,96 %
25.10.2020 02:10 15,5 C 15,0 C 13,4 C 83 % 1006,4 hPa 0,0 l/m 0 min 0 min 0 W/m 22,5 km/h (4 Bft) 95,74 %
25.10.2020 02:08 15,5 C 15,0 C 13,9 C 83 % 1006,6 hPa 0,0 l/m 0 min 0 min 0 W/m 35,4 km/h (5 Bft) 97,87 %
25.10.2020 02:06 15,5 C 15,0 C 13,9 C 83 % 1006,5 hPa 0,0 l/m 0 min 0 min 0 W/m 25,7 km/h (4 Bft) 97,83 %
25.10.2020 02:04 15,5 C 15,0 C 13,9 C 83 % 1006,7 hPa 0,0 l/m 0 min 0 min 0 W/m 45,1 km/h (6 Bft) 97,87 %
25.10.2020 02:02 15,5 C 15,0 C 13,4 C 83 % 1006,6 hPa 0,0 l/m 0 min 0 min 0 W/m 29,0 km/h (5 Bft) 97,62 %
25.10.2020 02:00 15,5 C 15,0 C 13,4 C 83 % 1006,7 hPa 0,0 l/m 0 min 0 min 0 W/m 25,7 km/h (4 Bft) 95,65 %
25.10.2020 01:58 15,5 C 15,0 C 13,9 C 83 % 1006,7 hPa 0,0 l/m 0 min 0 min 0 W/m 19,3 km/h (3 Bft) 97,92 %
25.10.2020 01:56 15,5 C 15,0 C 13,4 C 83 % 1006,7 hPa 0,0 l/m 0 min 0 min 0 W/m 32,2 km/h (5 Bft) 97,92 %
25.10.2020 01:54 15,5 C 15,0 C 13,9 C 83 % 1006,8 hPa 0,0 l/m 0 min 0 min 0 W/m 25,7 km/h (4 Bft) 97,87 %
25.10.2020 01:52 15,5 C 15,0 C 13,9 C 83 % 1006,8 hPa 0,0 l/m 0 min 0 min 0 W/m 22,5 km/h (4 Bft) 95,74 %
25.10.2020 01:50 15,5 C 15,0 C 13,9 C 83 % 1006,7 hPa 0,0 l/m 0 min 0 min 0 W/m 35,4 km/h (5 Bft) 95,83 %
25.10.2020 01:48 15,4 C 15,0 C 13,9 C 83 % 1006,8 hPa 0,0 l/m 0 min 0 min 0 W/m 38,6 km/h (5 Bft) 55,32 %
25.10.2020 01:46 15,4 C 15,0 C 13,9 C 83 % 1006,7 hPa 0,0 l/m 0 min 0 min 0 W/m 38,6 km/h (5 Bft) 97,92 %
25.10.2020 01:44 15,4 C 15,0 C 13,9 C 83 % 1006,9 hPa 0,0 l/m 0 min 0 min 0 W/m 25,7 km/h (4 Bft) 95,74 %
25.10.2020 01:42 15,4 C 15,0 C 13,9 C 83 % 1006,9 hPa 0,0 l/m 0 min 0 min 0 W/m 32,2 km/h (5 Bft) 92,68 %
25.10.2020 01:40 15,4 C 15,0 C 13,9 C 83 % 1006,9 hPa 0,0 l/m 0 min 0 min 0 W/m 22,5 km/h (4 Bft) 97,87 %
25.10.2020 01:38 15,3 C 15,0 C 13,9 C 84 % 1006,8 hPa 0,0 l/m 0 min 0 min 0 W/m 35,4 km/h (5 Bft) 95,74 %
25.10.2020 01:36 15,3 C 15,0 C 13,4 C 84 % 1006,9 hPa 0,0 l/m 0 min 0 min 0 W/m 45,1 km/h (6 Bft) 97,87 %
25.10.2020 01:34 15,3 C 15,0 C 13,4 C 84 % 1006,8 hPa 0,0 l/m 0 min 0 min 0 W/m 25,7 km/h (4 Bft) 91,49 %
25.10.2020 01:32 15,3 C 14,4 C 13,4 C 84 % 1006,9 hPa 0,0 l/m 0 min 0 min 0 W/m 3,2 km/h (1 Bft) 95,74 %
25.10.2020 01:30 15,3 C 14,4 C 13,4 C 84 % 1006,9 hPa 0,0 l/m 0 min 0 min 0 W/m 35,4 km/h (5 Bft) 95,74 %
25.10.2020 01:28 15,3 C 14,4 C 13,4 C 84 % 1006,7 hPa 0,0 l/m 0 min 0 min 0 W/m 6,4 km/h (2 Bft) 100,00 %
25.10.2020 01:26 15,3 C 14,4 C 13,4 C 84 % 1006,9 hPa 0,0 l/m 0 min 0 min 0 W/m 22,5 km/h (4 Bft) 97,83 %
25.10.2020 01:24 15,3 C 14,4 C 13,4 C 84 % 1006,9 hPa 0,0 l/m 0 min 0 min 0 W/m 6,4 km/h (2 Bft) 97,87 %
25.10.2020 01:22 15,3 C 14,4 C 13,4 C 84 % 1007,0 hPa 0,0 l/m 0 min 0 min 0 W/m 19,3 km/h (3 Bft) 97,92 %
25.10.2020 01:20 15,2 C 14,4 C 13,4 C 85 % 1006,9 hPa 0,0 l/m 0 min 0 min 0 W/m 19,3 km/h (3 Bft) 97,92 %
25.10.2020 01:18 15,2 C 14,4 C 13,4 C 85 % 1006,9 hPa 0,0 l/m 0 min 0 min 0 W/m 29,0 km/h (5 Bft) 95,74 %
25.10.2020 01:16 15,2 C 14,4 C 13,4 C 85 % 1007,0 hPa 0,0 l/m 0 min 0 min 0 W/m 16,1 km/h (3 Bft) 95,83 %
25.10.2020 01:14 15,1 C 15,0 C 13,9 C 85 % 1007,0 hPa 0,0 l/m 0 min 0 min 0 W/m 19,3 km/h (3 Bft) 97,92 %
25.10.2020 01:12 15,1 C 15,0 C 13,9 C 85 % 1007,0 hPa 0,0 l/m 0 min 0 min 0 W/m 25,7 km/h (4 Bft) 97,87 %
25.10.2020 01:10 15,1 C 14,4 C 13,4 C 85 % 1007,0 hPa 0,0 l/m 0 min 0 min 0 W/m 32,2 km/h (5 Bft) 100,00 %
25.10.2020 01:08 15,0 C 14,4 C 13,4 C 85 % 1007,0 hPa 0,0 l/m 0 min 0 min 0 W/m 35,4 km/h (5 Bft) 95,74 %
25.10.2020 01:06 15,0 C 14,4 C 13,4 C 85 % 1007,0 hPa 0,0 l/m 0 min 0 min 0 W/m 32,2 km/h (5 Bft) 95,74 %
25.10.2020 01:04 15,0 C 14,4 C 13,4 C 86 % 1007,0 hPa 0,0 l/m 0 min 0 min 0 W/m 22,5 km/h (4 Bft) 97,92 %
25.10.2020 01:02 15,0 C 14,4 C 13,4 C 86 % 1007,1 hPa 0,0 l/m 0 min 0 min 0 W/m 19,3 km/h (3 Bft) 98,00 %
25.10.2020 01:00 14,9 C 14,4 C 13,4 C 86 % 1007,2 hPa 0,0 l/m 0 min 0 min 0 W/m 25,7 km/h (4 Bft) 95,83 %
25.10.2020 00:58 14,9 C 14,4 C 13,4 C 86 % 1007,2 hPa 0,0 l/m 0 min 0 min 0 W/m 25,7 km/h (4 Bft) 97,62 %
25.10.2020 00:56 14,9 C 14,4 C 13,4 C 86 % 1007,2 hPa 0,0 l/m 0 min 0 min 0 W/m 29,0 km/h (5 Bft) 97,87 %
25.10.2020 00:54 14,8 C 14,4 C 13,4 C 86 % 1007,2 hPa 0,0 l/m 0 min 0 min 0 W/m 29,0 km/h (5 Bft) 100,00 %
25.10.2020 00:52 14,8 C 14,4 C 13,4 C 87 % 1007,3 hPa 0,0 l/m 0 min 0 min 0 W/m 25,7 km/h (4 Bft) 97,87 %
25.10.2020 00:50 14,8 C 14,4 C 13,4 C 87 % 1007,2 hPa 0,0 l/m 0 min 0 min 0 W/m 6,4 km/h (2 Bft) 100,00 %
25.10.2020 00:48 14,7 C 14,4 C 13,4 C 87 % 1007,3 hPa 0,0 l/m 0 min 0 min 0 W/m 19,3 km/h (3 Bft) 100,00 %
25.10.2020 00:46 14,6 C 14,4 C 13,4 C 87 % 1007,2 hPa 0,0 l/m 0 min 0 min 0 W/m 25,7 km/h (4 Bft) 100,00 %
25.10.2020 00:44 14,6 C 14,4 C 13,4 C 88 % 1007,2 hPa 0,0 l/m 0 min 0 min 0 W/m 25,7 km/h (4 Bft) 100,00 %
25.10.2020 00:42 14,5 C 14,4 C 13,4 C 88 % 1007,2 hPa 0,0 l/m 0 min 0 min 0 W/m 19,3 km/h (3 Bft) 97,83 %
25.10.2020 00:40 14,5 C 14,4 C 13,4 C 88 % 1007,3 hPa 0,0 l/m 0 min 0 min 0 W/m 0,0 km/h (0 Bft) 100,00 %
25.10.2020 00:38 14,4 C 14,4 C 13,4 C 88 % 1007,3 hPa 0,0 l/m 0 min 0 min 0 W/m 12,9 km/h (3 Bft) 100,00 %
25.10.2020 00:36 14,4 C 14,4 C 13,4 C 89 % 1007,3 hPa 0,0 l/m 0 min 0 min 0 W/m 19,3 km/h (3 Bft) 97,92 %
25.10.2020 00:34 14,2 C 14,4 C 13,4 C 89 % 1007,4 hPa 0,0 l/m 0 min 0 min 0 W/m 19,3 km/h (3 Bft) 97,87 %
25.10.2020 00:32 14,2 C 14,4 C 13,4 C 89 % 1007,3 hPa 0,0 l/m 0 min 0 min 0 W/m 32,2 km/h (5 Bft) 100,00 %
25.10.2020 00:30 14,2 C 14,4 C 13,4 C 89 % 1007,3 hPa 0,0 l/m 0 min 0 min 0 W/m 22,5 km/h (4 Bft) 100,00 %
25.10.2020 00:28 14,2 C 14,4 C 13,4 C 90 % 1007,3 hPa 0,0 l/m 0 min 0 min 0 W/m 16,1 km/h (3 Bft) 100,00 %
25.10.2020 00:26 14,1 C 14,4 C 12,8 C 90 % 1007,3 hPa 0,0 l/m 0 min 0 min 0 W/m 19,3 km/h (3 Bft) 97,87 %
25.10.2020 00:24 14,0 C 13,9 C 12,8 C 90 % 1007,3 hPa 0,0 l/m 0 min 0 min 0 W/m 19,3 km/h (3 Bft) 97,87 %
25.10.2020 00:22 14,0 C 13,9 C 12,8 C 91 % 1007,3 hPa 0,0 l/m 0 min 0 min 0 W/m 16,1 km/h (3 Bft) 97,92 %
25.10.2020 00:20 13,9 C 13,9 C 12,8 C 91 % 1007,3 hPa 0,0 l/m 0 min 0 min 0 W/m 0,0 km/h (0 Bft) 100,00 %
25.10.2020 00:18 13,9 C 13,9 C 12,8 C 91 % 1007,3 hPa 0,0 l/m 0 min 0 min 0 W/m 19,3 km/h (3 Bft) 100,00 %
25.10.2020 00:16 13,9 C 13,9 C 12,8 C 91 % 1007,3 hPa 0,0 l/m 0 min 0 min 0 W/m 22,5 km/h (4 Bft) 100,00 %
25.10.2020 00:14 13,8 C 13,9 C 12,8 C 91 % 1007,3 hPa 0,0 l/m 0 min 0 min 0 W/m 16,1 km/h (3 Bft) 100,00 %
25.10.2020 00:12 13,8 C 13,3 C 12,2 C 91 % 1007,3 hPa 0,0 l/m 0 min 0 min 0 W/m 12,9 km/h (3 Bft) 100,00 %
25.10.2020 00:10 13,8 C 13,3 C 12,2 C 91 % 1007,3 hPa 0,0 l/m 0 min 0 min 0 W/m 6,4 km/h (2 Bft) 100,00 %
25.10.2020 00:08 13,8 C 13,3 C 12,2 C 91 % 1007,4 hPa 0,0 l/m 0 min 0 min 0 W/m 3,2 km/h (1 Bft) 100,00 %
25.10.2020 00:04 13,8 C 13,3 C 12,2 C 91 % 1007,5 hPa 0,0 l/m 0 min 0 min 0 W/m 3,2 km/h (1 Bft) 100,00 %
25.10.2020 00:02 13,8 C 13,3 C 12,2 C 91 % 1007,5 hPa 0,0 l/m 0 min 0 min 0 W/m 6,4 km/h (2 Bft) 97,67 %
25.10.2020 00:00 13,8 C 13,3 C 12,2 C 91 % 1007,5 hPa 0,0 l/m 0 min 0 min 0 W/m 3,2 km/h (1 Bft) 97,56 %
24.10.2020 23:58 13,7 C 13,3 C 12,2 C 91 % 1007,5 hPa 0,0 l/m 0 min 0 min 0 W/m 0,0 km/h (0 Bft) 97,87 %
24.10.2020 23:56 13,7 C 13,3 C 12,2 C 91 % 1007,6 hPa 0,0 l/m 0 min 0 min 0 W/m 3,2 km/h (1 Bft) 97,87 %
24.10.2020 23:54 13,7 C 13,3 C 12,2 C 91 % 1007,6 hPa 0,0 l/m 0 min 0 min 0 W/m 3,2 km/h (1 Bft) 97,87 %
24.10.2020 23:52 13,6 C 13,3 C 12,2 C 92 % 1007,6 hPa 0,0 l/m 0 min 0 min 0 W/m 6,4 km/h (2 Bft) 97,83 %
24.10.2020 23:50 13,6 C 13,3 C 12,2 C 92 % 1007,6 hPa 0,0 l/m 0 min 0 min 0 W/m 12,9 km/h (3 Bft) 97,87 %
24.10.2020 23:48 13,6 C 13,3 C 12,2 C 92 % 1007,6 hPa 0,0 l/m 0 min 0 min 0 W/m 12,9 km/h (3 Bft) 97,87 %
24.10.2020 23:46 13,6 C 13,3 C 12,2 C 92 % 1007,7 hPa 0,0 l/m 0 min 0 min 0 W/m 12,9 km/h (3 Bft) 97,87 %
24.10.2020 23:44 13,6 C 13,3 C 12,2 C 92 % 1007,7 hPa 0,0 l/m 0 min 0 min 0 W/m 0,0 km/h (0 Bft) 97,87 %
24.10.2020 23:42 13,6 C 13,3 C 12,2 C 92 % 1007,7 hPa 0,0 l/m 0 min 0 min 0 W/m 0,0 km/h (0 Bft) 97,87 %
24.10.2020 23:40 13,5 C 13,3 C 12,2 C 92 % 1007,7 hPa 0,0 l/m 0 min 0 min 0 W/m 3,2 km/h (1 Bft) 97,87 %
24.10.2020 23:38 13,5 C 13,3 C 12,2 C 92 % 1007,7 hPa 0,0 l/m 0 min 0 min 0 W/m 3,2 km/h (1 Bft) 97,87 %
24.10.2020 23:36 13,5 C 13,3 C 12,2 C 92 % 1007,7 hPa 0,0 l/m 0 min 0 min 0 W/m 3,2 km/h (1 Bft) 97,87 %
24.10.2020 23:34 13,5 C 12,8 C 12,2 C 92 % 1007,7 hPa 0,0 l/m 0 min 0 min 0 W/m 6,4 km/h (2 Bft) 97,87 %
24.10.2020 23:32 13,5 C 12,8 C 12,2 C 92 % 1007,7 hPa 0,0 l/m 0 min 0 min 0 W/m 0,0 km/h (0 Bft) 91,67 %
24.10.2020 23:30 13,5 C 12,8 C 12,2 C 92 % 1007,7 hPa 0,0 l/m 0 min 0 min 0 W/m 12,9 km/h (3 Bft) 97,92 %
24.10.2020 23:28 13,5 C 12,8 C 12,2 C 92 % 1007,7 hPa 0,0 l/m 0 min 0 min 0 W/m 3,2 km/h (1 Bft) 97,92 %
24.10.2020 23:26 13,5 C 12,8 C 12,2 C 91 % 1007,7 hPa 0,0 l/m 0 min 0 min 0 W/m 19,3 km/h (3 Bft) 95,83 %
24.10.2020 23:24 13,5 C 12,8 C 12,2 C 91 % 1007,7 hPa 0,0 l/m 0 min 0 min 0 W/m 0,0 km/h (0 Bft) 97,87 %
24.10.2020 23:22 13,5 C 12,8 C 12,2 C 91 % 1007,7 hPa 0,0 l/m 0 min 0 min 0 W/m 16,1 km/h (3 Bft) 97,87 %
24.10.2020 23:20 13,4 C 12,8 C 12,2 C 91 % 1007,8 hPa 0,0 l/m 0 min 0 min 0 W/m 25,7 km/h (4 Bft) 97,87 %
24.10.2020 23:18 13,4 C 12,8 C 12,2 C 91 % 1007,8 hPa 0,0 l/m 0 min 0 min 0 W/m 19,3 km/h (3 Bft) 97,62 %
24.10.2020 23:16 13,4 C 12,8 C 12,2 C 91 % 1007,8 hPa 0,0 l/m 0 min 0 min 0 W/m 6,4 km/h (2 Bft) 97,83 %
24.10.2020 23:14 13,4 C 12,8 C 11,7 C 91 % 1007,8 hPa 0,0 l/m 0 min 0 min 0 W/m 29,0 km/h (5 Bft) 97,87 %
24.10.2020 23:12 13,4 C 12,8 C 11,7 C 91 % 1007,8 hPa 0,0 l/m 0 min 0 min 0 W/m 3,2 km/h (1 Bft) 100,00 %
24.10.2020 23:10 13,4 C 12,8 C 11,7 C 91 % 1007,9 hPa 0,0 l/m 0 min 0 min 0 W/m 12,9 km/h (3 Bft) 97,87 %
24.10.2020 23:08 13,4 C 12,2 C 11,7 C 91 % 1008,0 hPa 0,0 l/m 0 min 0 min 0 W/m 16,1 km/h (3 Bft) 100,00 %
24.10.2020 23:06 13,5 C 12,2 C 11,7 C 91 % 1008,0 hPa 0,0 l/m 0 min 0 min 0 W/m 0,0 km/h (0 Bft) 98,28 %
24.10.2020 23:04 13,5 C 12,2 C 11,7 C 91 % 1008,0 hPa 0,0 l/m 0 min 0 min 0 W/m 0,0 km/h (0 Bft) 95,12 %
24.10.2020 23:02 13,5 C 12,2 C 11,7 C 91 % 1008,1 hPa 0,0 l/m 0 min 0 min 0 W/m 0,0 km/h (0 Bft) 100,00 %
24.10.2020 23:00 13,5 C 12,2 C 11,7 C 91 % 1008,1 hPa 0,0 l/m 0 min 0 min 0 W/m 12,9 km/h (3 Bft) 93,75 %
24.10.2020 22:58 13,5 C 12,2 C 11,7 C 91 % 1008,1 hPa 0,0 l/m 0 min 0 min 0 W/m 0,0 km/h (0 Bft) 97,92 %
24.10.2020 22:56 13,5 C 12,2 C 11,7 C 90 % 1008,2 hPa 0,0 l/m 0 min 0 min 0 W/m 0,0 km/h (0 Bft) 93,75 %
24.10.2020 22:54 13,6 C 12,8 C 11,7 C 90 % 1008,2 hPa 0,0 l/m 0 min 0 min 0 W/m 0,0 km/h (0 Bft) 97,87 %
24.10.2020 22:52 13,6 C 12,8 C 11,7 C 90 % 1008,2 hPa 0,0 l/m 0 min 0 min 0 W/m 3,2 km/h (1 Bft) 97,92 %
24.10.2020 22:50 13,6 C 12,8 C 11,7 C 90 % 1008,2 hPa 0,0 l/m 0 min 0 min 0 W/m 6,4 km/h (2 Bft) 97,92 %
24.10.2020 22:48 13,6 C 12,8 C 11,7 C 90 % 1008,2 hPa 0,0 l/m 0 min 0 min 0 W/m 3,2 km/h (1 Bft) 97,56 %
24.10.2020 22:46 13,6 C 12,8 C 11,7 C 90 % 1008,2 hPa 0,0 l/m 0 min 0 min 0 W/m 12,9 km/h (3 Bft) 95,74 %
24.10.2020 22:44 13,7 C 12,8 C 11,7 C 90 % 1008,2 hPa 0,0 l/m 0 min 0 min 0 W/m 12,9 km/h (3 Bft) 95,65 %
24.10.2020 22:42 13,7 C 12,8 C 11,7 C 90 % 1008,2 hPa 0,0 l/m 0 min 0 min 0 W/m 12,9 km/h (3 Bft) 93,62 %
24.10.2020 22:40 13,8 C 12,8 C 11,7 C 90 % 1008,2 hPa 0,0 l/m 0 min 0 min 0 W/m 6,4 km/h (2 Bft) 95,74 %
24.10.2020 22:38 13,8 C 12,8 C 11,7 C 90 % 1008,3 hPa 0,0 l/m 0 min 0 min 0 W/m 12,9 km/h (3 Bft) 95,74 %
24.10.2020 22:36 13,8 C 12,8 C 11,7 C 90 % 1008,3 hPa 0,0 l/m 0 min 0 min 0 W/m 6,4 km/h (2 Bft) 97,87 %
24.10.2020 22:34 13,8 C 12,8 C 11,7 C 90 % 1008,3 hPa 0,0 l/m 0 min 0 min 0 W/m 19,3 km/h (3 Bft) 95,74 %
24.10.2020 22:32 13,8 C 12,8 C 12,2 C 90 % 1008,3 hPa 0,0 l/m 0 min 0 min 0 W/m 19,3 km/h (3 Bft) 95,74 %
24.10.2020 22:30 13,9 C 12,8 C 12,2 C 90 % 1008,3 hPa 0,0 l/m 0 min 0 min 0 W/m 12,9 km/h (3 Bft) 95,83 %
24.10.2020 22:28 13,9 C 12,8 C 12,2 C 90 % 1008,3 hPa 0,0 l/m 0 min 0 min 0 W/m 6,4 km/h (2 Bft) 95,83 %
24.10.2020 22:26 13,9 C 12,8 C 12,2 C 90 % 1008,4 hPa 0,0 l/m 0 min 0 min 0 W/m 12,9 km/h (3 Bft) 93,75 %
24.10.2020 22:24 13,9 C 12,8 C 12,2 C 90 % 1008,4 hPa 0,0 l/m 0 min 0 min 0 W/m 16,1 km/h (3 Bft) 95,65 %
24.10.2020 22:22 13,9 C 12,8 C 12,2 C 90 % 1008,4 hPa 0,0 l/m 0 min 0 min 0 W/m 12,9 km/h (3 Bft) 95,83 %
24.10.2020 22:20 13,9 C 13,3 C 12,2 C 90 % 1008,4 hPa 0,0 l/m 0 min 0 min 0 W/m 16,1 km/h (3 Bft) 95,83 %
24.10.2020 22:18 13,9 C 13,3 C 12,2 C 90 % 1008,4 hPa 0,0 l/m 0 min 0 min 0 W/m 19,3 km/h (3 Bft) 95,12 %
24.10.2020 22:16 13,9 C 13,3 C 12,2 C 90 % 1008,4 hPa 0,0 l/m 0 min 0 min 0 W/m 0,0 km/h (0 Bft) 50,00 %
24.10.2020 22:14 13,9 C 13,3 C 12,2 C 90 % 1008,4 hPa 0,0 l/m 0 min 0 min 0 W/m 16,1 km/h (3 Bft) 95,74 %
24.10.2020 22:12 13,9 C 13,3 C 12,2 C 90 % 1008,5 hPa 0,0 l/m 0 min 0 min 0 W/m 19,3 km/h (3 Bft) 97,87 %
24.10.2020 22:10 13,9 C 13,3 C 12,2 C 90 % 1008,5 hPa 0,0 l/m 0 min 0 min 0 W/m 12,9 km/h (3 Bft) 95,74 %
24.10.2020 22:08 13,9 C 13,3 C 12,2 C 90 % 1008,4 hPa 0,0 l/m 0 min 0 min 0 W/m 0,0 km/h (0 Bft) 97,83 %
24.10.2020 22:06 13,9 C 13,3 C 12,2 C 90 % 1008,5 hPa 0,0 l/m 0 min 0 min 0 W/m 16,1 km/h (3 Bft) 97,87 %
24.10.2020 22:04 13,9 C 13,3 C 12,2 C 90 % 1008,6 hPa 0,0 l/m 0 min 0 min 0 W/m 12,9 km/h (3 Bft) 95,92 %
24.10.2020 22:02 13,9 C 13,3 C 12,2 C 90 % 1008,6 hPa 0,0 l/m 0 min 0 min 0 W/m 3,2 km/h (1 Bft) 97,67 %
24.10.2020 22:00 13,9 C 13,3 C 12,2 C 90 % 1008,6 hPa 0,0 l/m 0 min 0 min 0 W/m 3,2 km/h (1 Bft) 97,87 %
24.10.2020 21:58 13,9 C 13,3 C 12,2 C 90 % 1008,6 hPa 0,0 l/m 0 min 0 min 0 W/m 6,4 km/h (2 Bft) 97,87 %
24.10.2020 21:56 13,9 C 13,3 C 12,2 C 90 % 1008,6 hPa 0,0 l/m 0 min 0 min 0 W/m 12,9 km/h (3 Bft) 95,65 %
24.10.2020 21:54 13,9 C 13,3 C 12,2 C 90 % 1008,6 hPa 0,0 l/m 0 min 0 min 0 W/m 0,0 km/h (0 Bft) 97,92 %
24.10.2020 21:52 13,9 C 13,3 C 12,2 C 90 % 1008,6 hPa 0,0 l/m 0 min 0 min 0 W/m 0,0 km/h (0 Bft) 97,87 %
24.10.2020 21:50 13,9 C 13,3 C 12,2 C 90 % 1008,6 hPa 0,0 l/m 0 min 0 min 0 W/m 19,3 km/h (3 Bft) 97,92 %
24.10.2020 21:48 13,9 C 13,3 C 12,2 C 90 % 1008,6 hPa 0,0 l/m 0 min 0 min 0 W/m 0,0 km/h (0 Bft) 97,87 %
24.10.2020 21:46 13,9 C 13,3 C 12,2 C 89 % 1008,7 hPa 0,0 l/m 0 min 0 min 0 W/m 3,2 km/h (1 Bft) 97,87 %
24.10.2020 21:44 13,9 C 13,3 C 12,2 C 89 % 1008,7 hPa 0,0 l/m 0 min 0 min 0 W/m 12,9 km/h (3 Bft) 97,87 %
24.10.2020 21:42 13,9 C 13,3 C 12,2 C 89 % 1008,7 hPa 0,0 l/m 0 min 0 min 0 W/m 25,7 km/h (4 Bft) 100,00 %
24.10.2020 21:40 13,9 C 13,3 C 12,2 C 89 % 1008,7 hPa 0,0 l/m 0 min 0 min 0 W/m 3,2 km/h (1 Bft) 97,92 %
24.10.2020 21:38 13,9 C 13,3 C 12,2 C 89 % 1008,6 hPa 0,0 l/m 0 min 0 min 0 W/m 19,3 km/h (3 Bft) 100,00 %
24.10.2020 21:36 13,9 C 13,3 C 12,2 C 89 % 1008,7 hPa 0,0 l/m 0 min 0 min 0 W/m 9,7 km/h (2 Bft) 100,00 %
24.10.2020 21:34 13,9 C 13,3 C 12,2 C 89 % 1008,7 hPa 0,0 l/m 0 min 0 min 0 W/m 16,1 km/h (3 Bft) 100,00 %
24.10.2020 21:32 13,9 C 13,3 C 12,2 C 89 % 1008,7 hPa 0,0 l/m 0 min 0 min 0 W/m 19,3 km/h (3 Bft) 100,00 %
24.10.2020 21:30 13,9 C 12,8 C 12,2 C 89 % 1008,8 hPa 0,0 l/m 0 min 0 min 0 W/m 12,9 km/h (3 Bft) 100,00 %
24.10.2020 21:28 13,9 C 12,8 C 12,2 C 89 % 1008,8 hPa 0,0 l/m 0 min 0 min 0 W/m 19,3 km/h (3 Bft) 100,00 %
24.10.2020 21:26 13,9 C 12,8 C 12,2 C 89 % 1008,9 hPa 0,0 l/m 0 min 0 min 0 W/m 0,0 km/h (0 Bft) 100,00 %
24.10.2020 21:24 13,9 C 12,8 C 12,2 C 89 % 1008,9 hPa 0,0 l/m 0 min 0 min 0 W/m 6,4 km/h (2 Bft) 100,00 %
24.10.2020 21:22 13,9 C 12,8 C 12,2 C 89 % 1008,9 hPa 0,0 l/m 0 min 0 min 0 W/m 6,4 km/h (2 Bft) 100,00 %
24.10.2020 21:20 13,9 C 12,8 C 12,2 C 89 % 1009,0 hPa 0,0 l/m 0 min 0 min 0 W/m 19,3 km/h (3 Bft) 100,00 %
24.10.2020 21:18 14,0 C 12,8 C 12,2 C 89 % 1009,0 hPa 0,0 l/m 0 min 0 min 0 W/m 16,1 km/h (3 Bft) 100,00 %
24.10.2020 21:16 14,0 C 12,8 C 12,2 C 89 % 1008,9 hPa 0,0 l/m 0 min 0 min 0 W/m 6,4 km/h (2 Bft) 97,87 %
24.10.2020 21:14 14,0 C 12,8 C 12,2 C 89 % 1009,0 hPa 0,0 l/m 0 min 0 min 0 W/m 12,9 km/h (3 Bft) 100,00 %
24.10.2020 21:12 14,0 C 12,8 C 12,2 C 89 % 1009,0 hPa 0,0 l/m 0 min 0 min 0 W/m 16,1 km/h (3 Bft) 100,00 %
24.10.2020 21:10 14,0 C 12,8 C 12,2 C 89 % 1009,1 hPa 0,0 l/m 0 min 0 min 0 W/m 12,9 km/h (3 Bft) 100,00 %
24.10.2020 21:08 14,0 C 12,8 C 12,2 C 89 % 1009,0 hPa 0,0 l/m 0 min 0 min 0 W/m 3,2 km/h (1 Bft) 97,92 %
24.10.2020 21:06 14,0 C 12,8 C 12,2 C 89 % 1009,1 hPa 0,0 l/m 0 min 0 min 0 W/m 0,0 km/h (0 Bft) 95,83 %
24.10.2020 21:04 14,1 C 12,8 C 12,2 C 89 % 1009,1 hPa 0,0 l/m 0 min 0 min 0 W/m 12,9 km/h (3 Bft) 95,45 %
24.10.2020 21:02 14,1 C 13,3 C 12,2 C 89 % 1009,1 hPa 0,0 l/m 0 min 0 min 0 W/m 6,4 km/h (2 Bft) 95,35 %
24.10.2020 21:00 14,2 C 13,3 C 12,2 C 88 % 1009,1 hPa 0,0 l/m 0 min 0 min 0 W/m 0,0 km/h (0 Bft) 97,83 %
24.10.2020 20:58 14,2 C 13,3 C 12,2 C 88 % 1009,1 hPa 0,0 l/m 0 min 0 min 0 W/m 0,0 km/h (0 Bft) 97,87 %
24.10.2020 20:56 14,2 C 13,3 C 12,2 C 88 % 1009,2 hPa 0,0 l/m 0 min 0 min 0 W/m 9,7 km/h (2 Bft) 95,74 %
24.10.2020 20:54 14,2 C 13,3 C 12,2 C 88 % 1009,2 hPa 0,0 l/m 0 min 0 min 0 W/m 6,4 km/h (2 Bft) 97,87 %
24.10.2020 20:52 14,2 C 13,3 C 12,2 C 88 % 1009,2 hPa 0,0 l/m 0 min 0 min 0 W/m 6,4 km/h (2 Bft) 97,92 %
24.10.2020 20:50 14,2 C 13,3 C 12,2 C 88 % 1009,2 hPa 0,0 l/m 0 min 0 min 0 W/m 16,1 km/h (3 Bft) 95,74 %
24.10.2020 20:48 14,2 C 13,3 C 12,2 C 88 % 1009,2 hPa 0,0 l/m 0 min 0 min 0 W/m 6,4 km/h (2 Bft) 97,92 %
24.10.2020 20:46 14,2 C 13,3 C 12,2 C 88 % 1009,3 hPa 0,0 l/m 0 min 0 min 0 W/m 19,3 km/h (3 Bft) 97,92 %
24.10.2020 20:44 14,2 C 13,3 C 12,2 C 88 % 1009,3 hPa 0,0 l/m 0 min 0 min 0 W/m 22,5 km/h (4 Bft) 97,87 %
24.10.2020 20:42 14,2 C 13,3 C 12,2 C 88 % 1009,3 hPa 0,0 l/m 0 min 0 min 0 W/m 16,1 km/h (3 Bft) 97,92 %
24.10.2020 20:40 14,2 C 13,3 C 12,2 C 88 % 1009,3 hPa 0,0 l/m 0 min 0 min 0 W/m 16,1 km/h (3 Bft) 97,87 %
24.10.2020 20:38 14,2 C 13,3 C 12,2 C 88 % 1009,4 hPa 0,0 l/m 0 min 0 min 0 W/m 3,2 km/h (1 Bft) 97,62 %
24.10.2020 20:36 14,3 C 13,3 C 12,2 C 88 % 1009,4 hPa 0,0 l/m 0 min 0 min 0 W/m 16,1 km/h (3 Bft) 95,65 %
24.10.2020 20:34 14,3 C 13,3 C 12,2 C 88 % 1009,5 hPa 0,0 l/m 0 min 0 min 0 W/m 19,3 km/h (3 Bft) 97,87 %
24.10.2020 20:32 14,3 C 13,3 C 12,2 C 88 % 1009,5 hPa 0,0 l/m 0 min 0 min 0 W/m 19,3 km/h (3 Bft) 95,74 %
24.10.2020 20:30 14,3 C 13,3 C 12,2 C 88 % 1009,5 hPa 0,0 l/m 0 min 0 min 0 W/m 16,1 km/h (3 Bft) 97,87 %
24.10.2020 20:28 14,4 C 13,3 C 12,8 C 88 % 1009,6 hPa 0,0 l/m 0 min 0 min 0 W/m 12,9 km/h (3 Bft) 93,62 %
24.10.2020 20:26 14,4 C 13,3 C 12,8 C 88 % 1009,5 hPa 0,0 l/m 0 min 0 min 0 W/m 22,5 km/h (4 Bft) 97,87 %
24.10.2020 20:24 14,4 C 13,3 C 12,8 C 88 % 1009,5 hPa 0,0 l/m 0 min 0 min 0 W/m 22,5 km/h (4 Bft) 97,83 %
24.10.2020 20:22 14,4 C 13,9 C 12,8 C 88 % 1009,6 hPa 0,0 l/m 0 min 0 min 0 W/m 16,1 km/h (3 Bft) 93,62 %
24.10.2020 20:20 14,4 C 13,9 C 12,8 C 88 % 1009,7 hPa 0,0 l/m 0 min 0 min 0 W/m 19,3 km/h (3 Bft) 97,87 %
24.10.2020 20:18 14,4 C 13,9 C 12,8 C 88 % 1009,7 hPa 0,0 l/m 0 min 0 min 0 W/m 0,0 km/h (0 Bft) 97,92 %
24.10.2020 20:16 14,4 C 13,9 C 12,8 C 87 % 1009,7 hPa 0,0 l/m 0 min 0 min 0 W/m 16,1 km/h (3 Bft) 97,87 %
24.10.2020 20:14 14,4 C 13,9 C 12,8 C 87 % 1009,7 hPa 0,0 l/m 0 min 0 min 0 W/m 12,9 km/h (3 Bft) 97,87 %
24.10.2020 20:12 14,4 C 13,9 C 12,8 C 87 % 1009,7 hPa 0,0 l/m 0 min 0 min 0 W/m 12,9 km/h (3 Bft) 97,83 %
24.10.2020 20:10 14,4 C 13,9 C 12,2 C 87 % 1009,8 hPa 0,0 l/m 0 min 0 min 0 W/m 0,0 km/h (0 Bft) 95,74 %
24.10.2020 20:08 14,4 C 13,9 C 12,8 C 87 % 1009,8 hPa 0,0 l/m 0 min 0 min 0 W/m 16,1 km/h (3 Bft) 97,87 %
24.10.2020 20:06 14,5 C 13,9 C 12,8 C 87 % 1009,8 hPa 0,0 l/m 0 min 0 min 0 W/m 9,7 km/h (2 Bft) 95,74 %
24.10.2020 20:04 14,5 C 13,9 C 12,8 C 87 % 1009,9 hPa 0,0 l/m 0 min 0 min 0 W/m 16,1 km/h (3 Bft) 97,87 %
24.10.2020 20:02 14,5 C 13,3 C 12,8 C 87 % 1009,9 hPa 0,0 l/m 0 min 0 min 0 W/m 3,2 km/h (1 Bft) 97,96 %
24.10.2020 20:00 14,5 C 13,3 C 12,8 C 87 % 1010,0 hPa 0,0 l/m 0 min 0 min 0 W/m 3,2 km/h (1 Bft) 95,74 %
24.10.2020 19:58 14,5 C 13,9 C 12,8 C 87 % 1010,0 hPa 0,0 l/m 0 min 0 min 0 W/m 19,3 km/h (3 Bft) 97,87 %
24.10.2020 19:56 14,5 C 13,9 C 12,8 C 87 % 1009,9 hPa 0,0 l/m 0 min 0 min 0 W/m 12,9 km/h (3 Bft) 97,87 %
24.10.2020 19:54 14,5 C 13,9 C 12,8 C 87 % 1009,9 hPa 0,0 l/m 0 min 0 min 0 W/m 6,4 km/h (2 Bft) 97,87 %
24.10.2020 19:52 14,5 C 13,9 C 12,8 C 87 % 1010,0 hPa 0,0 l/m 0 min 0 min 0 W/m 3,2 km/h (1 Bft) 97,87 %
24.10.2020 19:50 14,5 C 13,9 C 12,8 C 87 % 1010,0 hPa 0,0 l/m 0 min 0 min 0 W/m 3,2 km/h (1 Bft) 95,65 %
24.10.2020 19:48 14,6 C 13,9 C 12,8 C 87 % 1010,0 hPa 0,0 l/m 0 min 0 min 0 W/m 6,4 km/h (2 Bft) 97,87 %
24.10.2020 19:46 14,6 C 13,9 C 12,8 C 87 % 1010,1 hPa 0,0 l/m 0 min 0 min 0 W/m 16,1 km/h (3 Bft) 97,87 %
24.10.2020 19:44 14,6 C 13,9 C 12,8 C 87 % 1010,0 hPa 0,0 l/m 0 min 0 min 0 W/m 3,2 km/h (1 Bft) 97,87 %
24.10.2020 19:42 14,6 C 13,9 C 12,8 C 87 % 1010,0 hPa 0,0 l/m 0 min 0 min 0 W/m 9,7 km/h (2 Bft) 97,87 %
24.10.2020 19:40 14,6 C 13,9 C 12,8 C 87 % 1010,0 hPa 0,0 l/m 0 min 0 min 0 W/m 22,5 km/h (4 Bft) 97,87 %
24.10.2020 19:38 14,6 C 13,9 C 12,8 C 86 % 1010,0 hPa 0,0 l/m 0 min 0 min 0 W/m 12,9 km/h (3 Bft) 97,83 %
24.10.2020 19:36 14,7 C 13,9 C 12,8 C 86 % 1010,0 hPa 0,0 l/m 0 min 0 min 0 W/m 0,0 km/h (0 Bft) 97,62 %
24.10.2020 19:34 14,7 C 13,3 C 12,8 C 86 % 1010,0 hPa 0,0 l/m 0 min 0 min 0 W/m 6,4 km/h (2 Bft) 97,87 %
24.10.2020 19:32 14,8 C 13,3 C 12,8 C 86 % 1010,0 hPa 0,0 l/m 0 min 0 min 0 W/m 19,3 km/h (3 Bft) 97,87 %
24.10.2020 19:30 14,8 C 13,3 C 12,8 C 86 % 1010,0 hPa 0,0 l/m 0 min 0 min 0 W/m 16,1 km/h (3 Bft) 97,87 %
24.10.2020 19:28 14,8 C 13,9 C 12,8 C 86 % 1010,0 hPa 0,0 l/m 0 min 0 min 0 W/m 16,1 km/h (3 Bft) 100,00 %
24.10.2020 19:26 14,9 C 13,9 C 12,8 C 86 % 1010,1 hPa 0,0 l/m 0 min 0 min 0 W/m 6,4 km/h (2 Bft) 100,00 %
24.10.2020 19:24 14,9 C 13,9 C 12,8 C 86 % 1010,1 hPa 0,0 l/m 0 min 0 min 0 W/m 6,4 km/h (2 Bft) 100,00 %
24.10.2020 19:22 14,9 C 13,9 C 12,8 C 86 % 1010,1 hPa 0,0 l/m 0 min 0 min 0 W/m 16,1 km/h (3 Bft) 97,87 %
24.10.2020 19:20 14,9 C 13,9 C 12,8 C 86 % 1010,1 hPa 0,0 l/m 0 min 0 min 0 W/m 12,9 km/h (3 Bft) 100,00 %
24.10.2020 19:18 15,0 C 13,9 C 12,8 C 86 % 1010,1 hPa 0,0 l/m 0 min 0 min 0 W/m 22,5 km/h (4 Bft) 100,00 %
24.10.2020 19:16 15,0 C 13,9 C 12,8 C 86 % 1010,2 hPa 0,0 l/m 0 min 0 min 0 W/m 22,5 km/h (4 Bft) 100,00 %
24.10.2020 19:14 15,0 C 13,9 C 12,8 C 85 % 1010,2 hPa 0,0 l/m 0 min 0 min 0 W/m 16,1 km/h (3 Bft) 100,00 %
24.10.2020 19:12 15,0 C 13,9 C 12,8 C 85 % 1010,2 hPa 0,0 l/m 0 min 0 min 0 W/m 16,1 km/h (3 Bft) 97,87 %
24.10.2020 19:10 15,0 C 13,9 C 12,8 C 85 % 1010,2 hPa 0,0 l/m 0 min 0 min 0 W/m 16,1 km/h (3 Bft) 100,00 %
24.10.2020 19:08 15,0 C 13,9 C 13,4 C 85 % 1010,2 hPa 0,0 l/m 0 min 0 min 0 W/m 19,3 km/h (3 Bft) 100,00 %
24.10.2020 19:06 15,0 C 13,9 C 13,4 C 85 % 1010,2 hPa 0,0 l/m 0 min 0 min 0 W/m 0,0 km/h (0 Bft) 100,00 %
24.10.2020 19:04 15,0 C 14,4 C 13,4 C 85 % 1010,3 hPa 0,0 l/m 0 min 0 min 0 W/m 19,3 km/h (3 Bft) 100,00 %
24.10.2020 19:02 15,0 C 14,4 C 13,4 C 85 % 1010,3 hPa 0,0 l/m 0 min 0 min 0 W/m 19,3 km/h (3 Bft) 95,74 %
24.10.2020 19:00 15,1 C 14,4 C 13,4 C 85 % 1010,3 hPa 0,0 l/m 0 min 0 min 0 W/m 0,0 km/h (0 Bft) 100,00 %
24.10.2020 18:58 15,1 C 14,4 C 13,4 C 85 % 1010,4 hPa 0,0 l/m 0 min 0 min 0 W/m 22,5 km/h (4 Bft) 97,87 %
24.10.2020 18:56 15,1 C 14,4 C 13,4 C 85 % 1010,4 hPa 0,0 l/m 0 min 0 min 0 W/m 29,0 km/h (5 Bft) 97,87 %
24.10.2020 18:54 15,1 C 14,4 C 13,4 C 85 % 1010,4 hPa 0,0 l/m 0 min 0 min 0 W/m 16,1 km/h (3 Bft) 97,83 %
24.10.2020 18:52 15,1 C 14,4 C 13,4 C 85 % 1010,4 hPa 0,0 l/m 0 min 0 min 0 W/m 25,7 km/h (4 Bft) 97,87 %
24.10.2020 18:50 15,1 C 14,4 C 13,4 C 85 % 1010,4 hPa 0,0 l/m 0 min 0 min 0 W/m 12,9 km/h (3 Bft) 97,87 %
24.10.2020 18:48 15,1 C 14,4 C 13,4 C 85 % 1010,5 hPa 0,0 l/m 0 min 0 min 0 W/m 22,5 km/h (4 Bft) 97,87 %
24.10.2020 18:46 15,1 C 14,4 C 13,4 C 85 % 1010,5 hPa 0,0 l/m 0 min 0 min 0 W/m 6,4 km/h (2 Bft) 97,87 %
24.10.2020 18:44 15,1 C 14,4 C 13,4 C 85 % 1010,5 hPa 0,0 l/m 0 min 0 min 0 W/m 16,1 km/h (3 Bft) 97,87 %
24.10.2020 18:42 15,1 C 14,4 C 13,4 C 85 % 1010,5 hPa 0,0 l/m 0 min 0 min 0 W/m 12,9 km/h (3 Bft) 97,83 %
24.10.2020 18:40 15,1 C 14,4 C 13,4 C 85 % 1010,5 hPa 0,0 l/m 0 min 0 min 0 W/m 6,4 km/h (2 Bft) 97,87 %
24.10.2020 18:38 15,1 C 14,4 C 13,4 C 85 % 1010,5 hPa 0,0 l/m 0 min 0 min 0 W/m 16,1 km/h (3 Bft) 97,87 %
24.10.2020 18:36 15,1 C 14,4 C 13,4 C 85 % 1010,5 hPa 0,0 l/m 0 min 0 min 0 W/m 25,7 km/h (4 Bft) 95,74 %
24.10.2020 18:34 15,1 C 14,4 C 13,4 C 85 % 1010,5 hPa 0,0 l/m 0 min 0 min 0 W/m 19,3 km/h (3 Bft) 97,87 %
24.10.2020 18:32 15,1 C 14,4 C 13,4 C 85 % 1010,5 hPa 0,0 l/m 0 min 0 min 0 W/m 16,1 km/h (3 Bft) 95,74 %
24.10.2020 18:30 15,1 C 14,4 C 13,4 C 85 % 1010,5 hPa 0,0 l/m 0 min 0 min 0 W/m 12,9 km/h (3 Bft) 95,65 %
24.10.2020 18:28 15,1 C 14,4 C 13,4 C 85 % 1010,6 hPa 0,0 l/m 0 min 0 min 0 W/m 12,9 km/h (3 Bft) 95,74 %
24.10.2020 18:26 15,1 C 14,4 C 13,4 C 85 % 1010,6 hPa 0,0 l/m 0 min 0 min 0 W/m 16,1 km/h (3 Bft) 97,87 %
24.10.2020 18:24 15,1 C 14,4 C 13,4 C 85 % 1010,6 hPa 0,0 l/m 0 min 0 min 0 W/m 12,9 km/h (3 Bft) 93,62 %
24.10.2020 18:22 15,2 C 14,4 C 13,4 C 85 % 1010,6 hPa 0,0 l/m 0 min 0 min 0 W/m 19,3 km/h (3 Bft) 97,87 %
24.10.2020 18:20 15,2 C 14,4 C 13,4 C 85 % 1010,6 hPa 0,0 l/m 0 min 0 min 0 W/m 19,3 km/h (3 Bft) 97,87 %
24.10.2020 18:18 15,2 C 14,4 C 13,4 C 85 % 1010,5 hPa 0,0 l/m 0 min 0 min 0 W/m 19,3 km/h (3 Bft) 97,83 %
24.10.2020 18:16 15,2 C 14,4 C 13,4 C 85 % 1010,5 hPa 0,0 l/m 0 min 0 min 0 W/m 22,5 km/h (4 Bft) 97,87 %
24.10.2020 18:14 15,2 C 14,4 C 13,4 C 85 % 1010,6 hPa 0,0 l/m 0 min 0 min 0 W/m 19,3 km/h (3 Bft) 97,87 %
24.10.2020 18:12 15,3 C 14,4 C 13,4 C 85 % 1010,6 hPa 0,0 l/m 0 min 0 min 2 W/m 22,5 km/h (4 Bft) 95,74 %
24.10.2020 18:10 15,3 C 14,4 C 13,4 C 85 % 1010,6 hPa 0,0 l/m 0 min 0 min 5 W/m 6,4 km/h (2 Bft) 95,74 %
24.10.2020 18:08 15,3 C 14,4 C 13,4 C 85 % 1010,5 hPa 0,0 l/m 0 min 0 min 8 W/m 16,1 km/h (3 Bft) 95,70 %
24.10.2020 18:04 15,3 C 14,4 C 13,4 C 85 % 1010,6 hPa 0,0 l/m 0 min 0 min 11 W/m 19,3 km/h (3 Bft) 95,74 %
24.10.2020 18:02 15,3 C 14,4 C 13,4 C 85 % 1010,6 hPa 0,0 l/m 0 min 0 min 13 W/m 19,3 km/h (3 Bft) 93,62 %
24.10.2020 18:00 15,4 C 14,4 C 13,4 C 85 % 1010,6 hPa 0,0 l/m 0 min 0 min 15 W/m 16,1 km/h (3 Bft) 95,74 %
24.10.2020 17:58 15,4 C 14,4 C 13,4 C 85 % 1010,6 hPa 0,0 l/m 0 min 0 min 18 W/m 22,5 km/h (4 Bft) 93,62 %
24.10.2020 17:56 15,4 C 14,4 C 13,4 C 85 % 1010,6 hPa 0,0 l/m 0 min 0 min 20 W/m 22,5 km/h (4 Bft) 95,74 %
24.10.2020 17:54 15,4 C 14,4 C 13,4 C 85 % 1010,7 hPa 0,0 l/m 0 min 0 min 23 W/m 16,1 km/h (3 Bft) 95,65 %
24.10.2020 17:52 15,4 C 14,4 C 13,4 C 85 % 1010,7 hPa 0,0 l/m 0 min 0 min 25 W/m 22,5 km/h (4 Bft) 97,87 %
24.10.2020 17:50 15,4 C 14,4 C 13,4 C 85 % 1010,7 hPa 0,0 l/m 0 min 0 min 22 W/m 25,7 km/h (4 Bft) 97,87 %
24.10.2020 17:48 15,5 C 14,4 C 13,4 C 85 % 1010,7 hPa 0,0 l/m 0 min 0 min 25 W/m 19,3 km/h (3 Bft) 97,87 %
24.10.2020 17:46 15,5 C 14,4 C 13,4 C 85 % 1010,8 hPa 0,0 l/m 0 min 0 min 28 W/m 22,5 km/h (4 Bft) 95,74 %
24.10.2020 17:44 15,5 C 15,0 C 13,9 C 85 % 1010,8 hPa 0,0 l/m 0 min 0 min 30 W/m 22,5 km/h (4 Bft) 95,65 %
24.10.2020 17:42 15,5 C 15,0 C 13,9 C 85 % 1010,8 hPa 0,0 l/m 0 min 0 min 30 W/m 25,7 km/h (4 Bft) 97,87 %
24.10.2020 17:40 15,5 C 15,0 C 13,9 C 85 % 1010,8 hPa 0,0 l/m 0 min 0 min 24 W/m 0,0 km/h (0 Bft) 97,87 %
24.10.2020 17:38 15,5 C 15,0 C 13,9 C 85 % 1010,8 hPa 0,0 l/m 0 min 0 min 19 W/m 22,5 km/h (4 Bft) 95,74 %
24.10.2020 17:36 15,5 C 15,0 C 13,9 C 85 % 1010,8 hPa 0,0 l/m 0 min 0 min 20 W/m 29,0 km/h (5 Bft) 95,74 %
24.10.2020 17:34 15,5 C 15,0 C 13,9 C 85 % 1010,8 hPa 0,0 l/m 0 min 0 min 22 W/m 19,3 km/h (3 Bft) 93,62 %
24.10.2020 17:32 15,5 C 15,0 C 13,9 C 85 % 1010,9 hPa 0,0 l/m 0 min 0 min 23 W/m 25,7 km/h (4 Bft) 95,65 %
24.10.2020 17:30 15,5 C 15,0 C 13,9 C 85 % 1010,9 hPa 0,0 l/m 0 min 0 min 31 W/m 16,1 km/h (3 Bft) 93,62 %
24.10.2020 17:28 15,5 C 15,0 C 13,9 C 85 % 1010,9 hPa 0,0 l/m 0 min 0 min 32 W/m 22,5 km/h (4 Bft) 93,62 %
24.10.2020 17:26 15,5 C 15,0 C 13,9 C 85 % 1010,9 hPa 0,0 l/m 0 min 0 min 35 W/m 25,7 km/h (4 Bft) 95,74 %
24.10.2020 17:24 15,6 C 15,0 C 13,9 C 85 % 1010,9 hPa 0,0 l/m 0 min 0 min 41 W/m 6,4 km/h (2 Bft) 95,74 %
24.10.2020 17:22 15,6 C 15,0 C 13,9 C 85 % 1010,9 hPa 0,0 l/m 0 min 0 min 45 W/m 22,5 km/h (4 Bft) 95,74 %
24.10.2020 17:20 15,6 C 15,0 C 13,9 C 85 % 1010,9 hPa 0,0 l/m 0 min 0 min 46 W/m 12,9 km/h (3 Bft) 97,83 %
24.10.2020 17:18 15,6 C 15,0 C 13,9 C 85 % 1010,9 hPa 0,0 l/m 0 min 0 min 40 W/m 16,1 km/h (3 Bft) 95,74 %
24.10.2020 17:16 15,6 C 15,0 C 13,9 C 85 % 1010,9 hPa 0,0 l/m 0 min 0 min 32 W/m 12,9 km/h (3 Bft) 95,74 %
24.10.2020 17:14 15,6 C 15,0 C 13,9 C 85 % 1010,9 hPa 0,0 l/m 0 min 0 min 34 W/m 25,7 km/h (4 Bft) 95,74 %
24.10.2020 17:12 15,6 C 15,0 C 13,9 C 85 % 1011,0 hPa 0,0 l/m 0 min 0 min 33 W/m 6,4 km/h (2 Bft) 91,49 %
24.10.2020 17:10 15,6 C 15,0 C 13,9 C 85 % 1011,0 hPa 0,0 l/m 0 min 0 min 33 W/m 12,9 km/h (3 Bft) 97,87 %
24.10.2020 17:08 15,6 C 15,0 C 13,9 C 85 % 1011,0 hPa 0,0 l/m 0 min 0 min 36 W/m 16,1 km/h (3 Bft) 97,83 %
24.10.2020 17:06 15,6 C 15,0 C 13,9 C 85 % 1011,1 hPa 0,0 l/m 0 min 0 min 45 W/m 22,5 km/h (4 Bft) 95,74 %
24.10.2020 17:04 15,6 C 15,0 C 13,9 C 85 % 1011,0 hPa 0,0 l/m 0 min 0 min 49 W/m 16,1 km/h (3 Bft) 95,74 %
24.10.2020 17:02 15,6 C 15,0 C 13,9 C 85 % 1011,1 hPa 0,0 l/m 0 min 0 min 55 W/m 25,7 km/h (4 Bft) 97,87 %
24.10.2020 17:00 15,6 C 15,0 C 13,9 C 85 % 1011,2 hPa 0,0 l/m 0 min 0 min 54 W/m 9,7 km/h (2 Bft) 97,87 %
24.10.2020 16:58 15,7 C 15,0 C 13,9 C 85 % 1011,1 hPa 0,0 l/m 0 min 0 min 52 W/m 16,1 km/h (3 Bft) 95,74 %
24.10.2020 16:56 15,6 C 15,0 C 13,9 C 85 % 1011,2 hPa 0,0 l/m 0 min 0 min 63 W/m 16,1 km/h (3 Bft) 95,92 %
24.10.2020 16:54 15,7 C 15,0 C 13,9 C 85 % 1011,2 hPa 0,0 l/m 0 min 0 min 68 W/m 16,1 km/h (3 Bft) 97,83 %
24.10.2020 16:52 15,7 C 15,0 C 13,9 C 85 % 1011,2 hPa 0,0 l/m 0 min 0 min 69 W/m 12,9 km/h (3 Bft) 95,83 %
24.10.2020 16:50 15,7 C 15,0 C 13,9 C 84 % 1011,2 hPa 0,0 l/m 0 min 0 min 69 W/m 0,0 km/h (0 Bft) 100,00 %
24.10.2020 16:48 15,7 C 15,0 C 13,9 C 84 % 1011,2 hPa 0,0 l/m 0 min 0 min 64 W/m 16,1 km/h (3 Bft) 97,87 %
24.10.2020 16:46 15,7 C 15,0 C 13,9 C 84 % 1011,3 hPa 0,0 l/m 0 min 0 min 57 W/m 25,7 km/h (4 Bft) 100,00 %
24.10.2020 16:44 15,7 C 15,0 C 13,9 C 84 % 1011,3 hPa 0,0 l/m 0 min 0 min 57 W/m 19,3 km/h (3 Bft) 100,00 %
24.10.2020 16:42 15,7 C 15,0 C 13,9 C 84 % 1011,4 hPa 0,0 l/m 0 min 0 min 49 W/m 6,4 km/h (2 Bft) 100,00 %
24.10.2020 16:40 15,7 C 15,0 C 13,9 C 84 % 1011,3 hPa 0,0 l/m 0 min 0 min 48 W/m 12,9 km/h (3 Bft) 100,00 %
24.10.2020 16:38 15,7 C 15,0 C 13,9 C 84 % 1011,4 hPa 0,0 l/m 0 min 0 min 48 W/m 25,7 km/h (4 Bft) 100,00 %
24.10.2020 16:36 15,7 C 15,0 C 13,9 C 84 % 1011,5 hPa 0,0 l/m 0 min 0 min 43 W/m 22,5 km/h (4 Bft) 97,87 %
24.10.2020 16:34 15,7 C 15,0 C 13,9 C 84 % 1011,4 hPa 0,0 l/m 0 min 0 min 45 W/m 16,1 km/h (3 Bft) 100,00 %
24.10.2020 16:32 15,7 C 15,0 C 13,9 C 84 % 1011,4 hPa 0,0 l/m 0 min 0 min 48 W/m 16,1 km/h (3 Bft) 100,00 %
24.10.2020 16:30 15,7 C 15,0 C 13,9 C 84 % 1011,5 hPa 0,0 l/m 0 min 0 min 48 W/m 25,7 km/h (4 Bft) 100,00 %
24.10.2020 16:28 15,7 C 15,0 C 13,9 C 84 % 1011,4 hPa 0,0 l/m 0 min 0 min 52 W/m 3,2 km/h (1 Bft) 100,00 %
24.10.2020 16:26 15,7 C 15,0 C 13,9 C 84 % 1011,4 hPa 0,0 l/m 0 min 0 min 57 W/m 3,2 km/h (1 Bft) 100,00 %
24.10.2020 16:24 15,7 C 15,0 C 13,9 C 84 % 1011,4 hPa 0,0 l/m 0 min 0 min 56 W/m 25,7 km/h (4 Bft) 100,00 %
24.10.2020 16:22 15,7 C 15,0 C 13,9 C 84 % 1011,5 hPa 0,0 l/m 0 min 0 min 47 W/m 41,8 km/h (6 Bft) 100,00 %
24.10.2020 16:20 15,8 C 15,0 C 13,9 C 83 % 1011,5 hPa 0,0 l/m 0 min 0 min 49 W/m 25,7 km/h (4 Bft) 100,00 %
24.10.2020 16:18 15,8 C 15,0 C 13,9 C 84 % 1011,4 hPa 0,0 l/m 0 min 0 min 56 W/m 22,5 km/h (4 Bft) 100,00 %
24.10.2020 16:16 15,8 C 15,0 C 13,9 C 83 % 1011,5 hPa 0,0 l/m 0 min 0 min 55 W/m 22,5 km/h (4 Bft) 100,00 %
24.10.2020 16:14 15,8 C 15,0 C 13,9 C 83 % 1011,5 hPa 0,0 l/m 0 min 0 min 50 W/m 16,1 km/h (3 Bft) 100,00 %
24.10.2020 16:12 15,8 C 15,0 C 13,9 C 83 % 1011,5 hPa 0,0 l/m 0 min 0 min 51 W/m 6,4 km/h (2 Bft) 100,00 %
24.10.2020 16:10 15,8 C 15,0 C 13,9 C 83 % 1011,5 hPa 0,0 l/m 0 min 0 min 45 W/m 12,9 km/h (3 Bft) 100,00 %
24.10.2020 16:08 15,8 C 15,0 C 13,9 C 83 % 1011,6 hPa 0,0 l/m 0 min 0 min 45 W/m 19,3 km/h (3 Bft) 100,00 %
24.10.2020 16:06 15,8 C 15,0 C 13,9 C 83 % 1011,5 hPa 0,0 l/m 0 min 0 min 59 W/m 16,1 km/h (3 Bft) 100,00 %
24.10.2020 16:04 15,8 C 15,0 C 13,9 C 83 % 1011,6 hPa 0,0 l/m 0 min 0 min 58 W/m 22,5 km/h (4 Bft) 100,00 %
24.10.2020 16:02 15,9 C 15,0 C 13,9 C 83 % 1011,6 hPa 0,0 l/m 0 min 0 min 61 W/m 19,3 km/h (3 Bft) 97,96 %
24.10.2020 16:00 15,9 C 15,0 C 13,9 C 83 % 1011,6 hPa 0,0 l/m 0 min 0 min 56 W/m 3,2 km/h (1 Bft) 100,00 %
24.10.2020 15:58 15,9 C 15,0 C 13,9 C 83 % 1011,6 hPa 0,0 l/m 0 min 0 min 48 W/m 19,3 km/h (3 Bft) 100,00 %
24.10.2020 15:56 15,9 C 15,0 C 13,9 C 83 % 1011,6 hPa 0,0 l/m 0 min 0 min 56 W/m 0,0 km/h (0 Bft) 100,00 %
24.10.2020 15:54 15,9 C 15,0 C 13,9 C 83 % 1011,6 hPa 0,0 l/m 0 min 0 min 54 W/m 12,9 km/h (3 Bft) 100,00 %
24.10.2020 15:52 15,9 C 15,6 C 13,9 C 83 % 1011,5 hPa 0,0 l/m 0 min 0 min 53 W/m 6,4 km/h (2 Bft) 100,00 %
24.10.2020 15:50 15,9 C 15,6 C 14,5 C 82 % 1011,6 hPa 0,0 l/m 0 min 0 min 66 W/m 6,4 km/h (2 Bft) 100,00 %
24.10.2020 15:48 15,9 C 15,6 C 14,5 C 82 % 1011,6 hPa 0,0 l/m 0 min 0 min 80 W/m 35,4 km/h (5 Bft) 97,87 %
24.10.2020 15:46 16,0 C 15,6 C 14,5 C 82 % 1011,6 hPa 0,0 l/m 0 min 0 min 89 W/m 16,1 km/h (3 Bft) 100,00 %
24.10.2020 15:44 16,0 C 15,6 C 14,5 C 82 % 1011,6 hPa 0,0 l/m 0 min 0 min 97 W/m 16,1 km/h (3 Bft) 100,00 %
24.10.2020 15:42 16,0 C 15,6 C 14,5 C 82 % 1011,6 hPa 0,0 l/m 0 min 0 min 123 W/m 22,5 km/h (4 Bft) 100,00 %
24.10.2020 15:40 16,0 C 16,1 C 14,5 C 82 % 1011,7 hPa 0,0 l/m 0 min 0 min 144 W/m 29,0 km/h (5 Bft) 97,87 %
24.10.2020 15:38 16,0 C 16,1 C 14,5 C 82 % 1011,8 hPa 0,0 l/m 0 min 0 min 160 W/m 32,2 km/h (5 Bft) 97,87 %
24.10.2020 15:36 16,0 C 16,1 C 14,5 C 82 % 1011,8 hPa 0,0 l/m 0 min 0 min 155 W/m 12,9 km/h (3 Bft) 100,00 %
24.10.2020 15:34 16,0 C 16,1 C 14,5 C 82 % 1011,7 hPa 0,0 l/m 2 min 0 min 189 W/m 32,2 km/h (5 Bft) 100,00 %
24.10.2020 15:32 16,0 C 16,1 C 14,5 C 82 % 1011,8 hPa 0,0 l/m 2 min 0 min 192 W/m 22,5 km/h (4 Bft) 100,00 %
24.10.2020 15:30 16,0 C 16,1 C 14,5 C 82 % 1011,8 hPa 0,0 l/m 2 min 0 min 176 W/m 12,9 km/h (3 Bft) 97,87 %
24.10.2020 15:28 15,9 C 16,1 C 14,5 C 82 % 1011,9 hPa 0,0 l/m 0 min 0 min 171 W/m 25,7 km/h (4 Bft) 97,87 %
24.10.2020 15:26 16,0 C 16,1 C 14,5 C 82 % 1011,9 hPa 0,0 l/m 0 min 0 min 160 W/m 32,2 km/h (5 Bft) 97,87 %
24.10.2020 15:24 15,9 C 16,1 C 14,5 C 82 % 1011,9 hPa 0,0 l/m 2 min 0 min 183 W/m 19,3 km/h (3 Bft) 97,83 %
24.10.2020 15:22 15,9 C 16,1 C 14,5 C 82 % 1011,9 hPa 0,0 l/m 2 min 0 min 207 W/m 22,5 km/h (4 Bft) 97,87 %
24.10.2020 15:20 15,9 C 16,1 C 14,5 C 82 % 1011,9 hPa 0,0 l/m 0 min 0 min 150 W/m 19,3 km/h (3 Bft) 97,87 %
24.10.2020 15:18 15,9 C 16,1 C 14,5 C 82 % 1011,9 hPa 0,0 l/m 0 min 0 min 171 W/m 0,0 km/h (0 Bft) 97,87 %
24.10.2020 15:16 15,9 C 16,1 C 14,5 C 82 % 1011,9 hPa 0,0 l/m 2 min 0 min 189 W/m 12,9 km/h (3 Bft) 97,87 %
24.10.2020 15:14 15,9 C 16,1 C 14,5 C 82 % 1012,0 hPa 0,0 l/m 0 min 0 min 171 W/m 19,3 km/h (3 Bft) 95,74 %
24.10.2020 15:12 15,9 C 15,6 C 14,5 C 82 % 1012,0 hPa 0,0 l/m 0 min 0 min 166 W/m 29,0 km/h (5 Bft) 97,83 %
24.10.2020 15:10 15,9 C 15,6 C 14,5 C 82 % 1012,1 hPa 0,0 l/m 0 min 0 min 143 W/m 32,2 km/h (5 Bft) 97,87 %
24.10.2020 15:08 15,9 C 15,6 C 14,5 C 82 % 1012,1 hPa 0,0 l/m 0 min 0 min 132 W/m 19,3 km/h (3 Bft) 95,74 %
24.10.2020 15:06 15,9 C 16,1 C 14,5 C 82 % 1012,1 hPa 0,0 l/m 0 min 0 min 149 W/m 29,0 km/h (5 Bft) 95,74 %
24.10.2020 15:04 15,9 C 16,1 C 14,5 C 82 % 1012,1 hPa 0,0 l/m 2 min 0 min 202 W/m 41,8 km/h (6 Bft) 93,62 %
24.10.2020 15:02 15,8 C 16,7 C 14,5 C 82 % 1012,1 hPa 0,0 l/m 2 min 0 min 213 W/m 35,4 km/h (5 Bft) 93,48 %
24.10.2020 15:00 15,8 C 16,7 C 14,5 C 82 % 1012,1 hPa 0,0 l/m 2 min 0 min 200 W/m 25,7 km/h (4 Bft) 93,62 %
24.10.2020 14:58 15,8 C 16,7 C 14,5 C 82 % 1012,2 hPa 0,0 l/m 2 min 0 min 196 W/m 29,0 km/h (5 Bft) 93,62 %
24.10.2020 14:56 15,8 C 16,7 C 14,5 C 82 % 1012,1 hPa 0,0 l/m 0 min 0 min 183 W/m 16,1 km/h (3 Bft) 93,62 %
24.10.2020 14:54 15,7 C 16,7 C 15,0 C 82 % 1012,1 hPa 0,0 l/m 2 min 0 min 202 W/m 25,7 km/h (4 Bft) 92,31 %
24.10.2020 14:52 15,6 C 16,1 C 14,5 C 82 % 1012,2 hPa 0,0 l/m 2 min 0 min 231 W/m 29,0 km/h (5 Bft) 91,49 %
24.10.2020 14:50 15,6 C 16,7 C 15,0 C 83 % 1012,4 hPa 0,0 l/m 2 min 0 min 280 W/m 45,1 km/h (6 Bft) 91,49 %
24.10.2020 14:48 15,5 C 16,7 C 14,5 C 83 % 1012,2 hPa 0,0 l/m 2 min 0 min 246 W/m 29,0 km/h (5 Bft) 94,44 %
24.10.2020 14:46 15,5 C 16,7 C 14,5 C 83 % 1012,2 hPa 0,0 l/m 2 min 0 min 251 W/m 35,4 km/h (5 Bft) 91,49 %
24.10.2020 14:44 15,5 C 16,1 C 14,5 C 83 % 1012,2 hPa 0,0 l/m 2 min 0 min 246 W/m 29,0 km/h (5 Bft) 93,62 %
24.10.2020 14:42 15,4 C 16,1 C 14,5 C 83 % 1012,3 hPa 0,0 l/m 2 min 0 min 222 W/m 16,1 km/h (3 Bft) 93,62 %
24.10.2020 14:40 15,4 C 16,1 C 14,5 C 82 % 1012,3 hPa 0,0 l/m 0 min 0 min 192 W/m 29,0 km/h (5 Bft) 93,62 %
24.10.2020 14:38 15,4 C 16,1 C 14,5 C 83 % 1012,3 hPa 0,0 l/m 2 min 0 min 212 W/m 29,0 km/h (5 Bft) 91,30 %
24.10.2020 14:36 15,3 C 16,7 C 14,5 C 83 % 1012,3 hPa 0,0 l/m 2 min 0 min 267 W/m 41,8 km/h (6 Bft) 91,49 %
24.10.2020 14:34 15,3 C 16,7 C 14,5 C 83 % 1012,5 hPa 0,0 l/m 2 min 0 min 292 W/m 35,4 km/h (5 Bft) 95,74 %
24.10.2020 14:32 15,2 C 16,1 C 14,5 C 83 % 1012,4 hPa 0,0 l/m 2 min 0 min 216 W/m 35,4 km/h (5 Bft) 95,74 %
24.10.2020 14:30 15,1 C 16,1 C 14,5 C 83 % 1012,5 hPa 0,0 l/m 2 min 0 min 234 W/m 25,7 km/h (4 Bft) 95,74 %
24.10.2020 14:28 15,1 C 15,6 C 14,5 C 83 % 1012,5 hPa 0,0 l/m 2 min 0 min 249 W/m 32,2 km/h (5 Bft) 95,74 %
24.10.2020 14:26 15,1 C 15,6 C 13,9 C 83 % 1012,4 hPa 0,0 l/m 0 min 0 min 196 W/m 25,7 km/h (4 Bft) 95,65 %
24.10.2020 14:24 15,1 C 15,0 C 13,9 C 83 % 1012,5 hPa 0,0 l/m 0 min 0 min 117 W/m 29,0 km/h (5 Bft) 95,74 %
24.10.2020 14:22 15,1 C 15,0 C 13,9 C 83 % 1012,5 hPa 0,0 l/m 0 min 0 min 102 W/m 35,4 km/h (5 Bft) 93,62 %
24.10.2020 14:20 15,1 C 15,0 C 13,9 C 83 % 1012,6 hPa 0,0 l/m 0 min 0 min 108 W/m 29,0 km/h (5 Bft) 95,74 %
24.10.2020 14:18 15,1 C 15,0 C 13,9 C 83 % 1012,5 hPa 0,0 l/m 0 min 0 min 116 W/m 16,1 km/h (3 Bft) 97,87 %
24.10.2020 14:16 15,0 C 15,0 C 14,5 C 84 % 1012,5 hPa 0,0 l/m 0 min 0 min 124 W/m 22,5 km/h (4 Bft) 95,74 %
24.10.2020 14:14 15,0 C 15,0 C 14,5 C 83 % 1012,6 hPa 0,0 l/m 0 min 0 min 143 W/m 16,1 km/h (3 Bft) 97,83 %
24.10.2020 14:12 15,0 C 15,0 C 14,5 C 84 % 1012,5 hPa 0,0 l/m 0 min 0 min 144 W/m 22,5 km/h (4 Bft) 97,87 %
24.10.2020 14:10 15,0 C 15,0 C 14,5 C 83 % 1012,5 hPa 0,0 l/m 0 min 0 min 142 W/m 16,1 km/h (3 Bft) 97,87 %
24.10.2020 14:08 15,0 C 15,0 C 14,5 C 84 % 1012,5 hPa 0,0 l/m 0 min 0 min 144 W/m 32,2 km/h (5 Bft) 97,87 %
24.10.2020 14:06 14,9 C 15,0 C 14,5 C 84 % 1012,5 hPa 0,0 l/m 0 min 0 min 165 W/m 35,4 km/h (5 Bft) 98,00 %
24.10.2020 14:04 14,9 C 15,6 C 14,5 C 84 % 1012,6 hPa 0,0 l/m 0 min 0 min 189 W/m 51,5 km/h (7 Bft) 100,00 %
24.10.2020 14:02 14,9 C 15,6 C 14,5 C 84 % 1012,6 hPa 0,0 l/m 0 min 0 min 195 W/m 29,0 km/h (5 Bft) 98,18 %
24.10.2020 14:00 14,8 C 15,0 C 14,5 C 84 % 1012,6 hPa 0,0 l/m 0 min 0 min 173 W/m 22,5 km/h (4 Bft) 95,74 %
24.10.2020 13:58 14,8 C 15,0 C 14,5 C 84 % 1012,6 hPa 0,0 l/m 0 min 0 min 168 W/m 38,6 km/h (5 Bft) 100,00 %
24.10.2020 13:56 14,8 C 15,0 C 14,5 C 85 % 1012,6 hPa 0,0 l/m 0 min 0 min 158 W/m 22,5 km/h (4 Bft) 100,00 %
24.10.2020 13:54 14,8 C 15,0 C 14,5 C 85 % 1012,6 hPa 0,0 l/m 0 min 0 min 128 W/m 25,7 km/h (4 Bft) 97,87 %
24.10.2020 13:52 14,7 C 15,0 C 14,5 C 85 % 1012,6 hPa 0,0 l/m 0 min 0 min 138 W/m 35,4 km/h (5 Bft) 97,37 %
24.10.2020 13:50 14,6 C 15,6 C 14,5 C 86 % 1012,6 hPa 0,0 l/m 0 min 0 min 214 W/m 29,0 km/h (5 Bft) 97,87 %
24.10.2020 13:48 14,6 C 15,6 C 14,5 C 86 % 1012,6 hPa 0,0 l/m 2 min 0 min 236 W/m 16,1 km/h (3 Bft) 97,87 %
24.10.2020 13:46 14,6 C 15,6 C 14,5 C 87 % 1012,6 hPa 0,0 l/m 0 min 0 min 207 W/m 12,9 km/h (3 Bft) 100,00 %
24.10.2020 13:44 14,5 C 15,0 C 14,5 C 87 % 1012,7 hPa 0,0 l/m 0 min 0 min 191 W/m 29,0 km/h (5 Bft) 97,87 %
24.10.2020 13:42 14,5 C 15,6 C 14,5 C 87 % 1012,7 hPa 0,0 l/m 0 min 0 min 195 W/m 32,2 km/h (5 Bft) 100,00 %
24.10.2020 13:40 14,4 C 15,6 C 14,5 C 88 % 1012,7 hPa 0,0 l/m 0 min 0 min 205 W/m 29,0 km/h (5 Bft) 97,87 %
24.10.2020 13:38 14,3 C 15,6 C 14,5 C 89 % 1012,7 hPa 0,0 l/m 0 min 0 min 194 W/m 16,1 km/h (3 Bft) 97,87 %
24.10.2020 13:36 14,2 C 16,1 C 15,0 C 89 % 1012,7 hPa 0,0 l/m 0 min 0 min 206 W/m 25,7 km/h (4 Bft) 100,00 %
24.10.2020 13:34 14,2 C 17,8 C 15,6 C 89 % 1012,7 hPa 0,0 l/m 2 min 0 min 585 W/m 12,9 km/h (3 Bft) 100,00 %
24.10.2020 13:32 14,1 C 17,8 C 15,6 C 89 % 1012,7 hPa 0,0 l/m 2 min 0 min 343 W/m 19,3 km/h (3 Bft) 100,00 %
24.10.2020 13:30 14,0 C 15,6 C 14,5 C 89 % 1012,8 hPa 0,0 l/m 2 min 0 min 267 W/m 29,0 km/h (5 Bft) 100,00 %
24.10.2020 13:28 14,0 C 15,6 C 13,9 C 90 % 1012,7 hPa 0,0 l/m 2 min 0 min 258 W/m 38,6 km/h (5 Bft) 100,00 %
24.10.2020 13:26 13,9 C 15,0 C 13,9 C 90 % 1012,8 hPa 0,0 l/m 2 min 0 min 242 W/m 22,5 km/h (4 Bft) 100,00 %
24.10.2020 13:24 13,9 C 14,4 C 13,9 C 90 % 1012,8 hPa 0,0 l/m 2 min 0 min 235 W/m 32,2 km/h (5 Bft) 97,87 %
24.10.2020 13:22 13,8 C 15,0 C 13,9 C 90 % 1012,8 hPa 0,0 l/m 2 min 0 min 229 W/m 29,0 km/h (5 Bft) 100,00 %
24.10.2020 13:20 13,8 C 14,4 C 13,4 C 90 % 1012,8 hPa 0,0 l/m 0 min 0 min 218 W/m 32,2 km/h (5 Bft) 100,00 %
24.10.2020 13:18 13,8 C 14,4 C 13,4 C 91 % 1012,9 hPa 0,0 l/m 2 min 0 min 257 W/m 22,5 km/h (4 Bft) 100,00 %
24.10.2020 13:16 13,8 C 13,9 C 12,8 C 90 % 1012,9 hPa 0,0 l/m 0 min 0 min 177 W/m 29,0 km/h (5 Bft) 72,34 %
24.10.2020 13:14 13,8 C 13,3 C 12,8 C 90 % 1013,0 hPa 0,0 l/m 0 min 0 min 141 W/m 32,2 km/h (5 Bft) 85,11 %
24.10.2020 13:12 13,8 C 12,8 C 12,8 C 90 % 1013,0 hPa 0,0 l/m 0 min 2 min 169 W/m 38,6 km/h (5 Bft) 98,15 %
24.10.2020 13:10 13,8 C 12,8 C 12,8 C 90 % 1013,0 hPa 0,0 l/m 0 min 0 min 179 W/m 19,3 km/h (3 Bft) 97,87 %
24.10.2020 13:08 13,8 C 12,8 C 12,2 C 90 % 1013,0 hPa 0,0 l/m 0 min 2 min 172 W/m 19,3 km/h (3 Bft) 100,00 %
24.10.2020 13:06 13,8 C 12,2 C 12,8 C 90 % 1013,0 hPa 0,0 l/m 0 min 2 min 109 W/m 32,2 km/h (5 Bft) 100,00 %
24.10.2020 13:04 13,8 C 12,8 C 12,8 C 90 % 1013,1 hPa 0,0 l/m 0 min 0 min 76 W/m 35,4 km/h (5 Bft) 97,83 %
24.10.2020 13:02 13,8 C 13,3 C 13,4 C 90 % 1013,1 hPa 0,0 l/m 0 min 0 min 71 W/m 22,5 km/h (4 Bft) 100,00 %
24.10.2020 13:00 13,8 C 13,3 C 13,4 C 90 % 1013,2 hPa 0,0 l/m 0 min 0 min 73 W/m 38,6 km/h (5 Bft) 100,00 %
24.10.2020 12:58 13,8 C 13,9 C 13,4 C 90 % 1013,1 hPa 0,0 l/m 0 min 0 min 84 W/m 22,5 km/h (4 Bft) 100,00 %
24.10.2020 12:56 13,8 C 13,3 C 13,4 C 90 % 1013,1 hPa 0,0 l/m 0 min 0 min 97 W/m 32,2 km/h (5 Bft) 100,00 %
24.10.2020 12:54 13,8 C 13,3 C 13,4 C 90 % 1013,1 hPa 0,0 l/m 0 min 0 min 95 W/m 25,7 km/h (4 Bft) 100,00 %
24.10.2020 12:52 13,7 C 13,3 C 13,4 C 90 % 1013,2 hPa 0,0 l/m 0 min 0 min 91 W/m 22,5 km/h (4 Bft) 97,87 %
24.10.2020 12:50 13,7 C 13,3 C 13,4 C 90 % 1013,2 hPa 0,0 l/m 0 min 0 min 80 W/m 35,4 km/h (5 Bft) 97,56 %
24.10.2020 12:48 13,7 C 13,3 C 13,4 C 90 % 1013,2 hPa 0,0 l/m 0 min 0 min 78 W/m 25,7 km/h (4 Bft) 97,83 %
24.10.2020 12:46 13,6 C 13,3 C 13,4 C 90 % 1013,2 hPa 0,0 l/m 0 min 0 min 74 W/m 35,4 km/h (5 Bft) 100,00 %
24.10.2020 12:44 13,6 C 13,3 C 13,4 C 90 % 1013,1 hPa 0,0 l/m 0 min 0 min 73 W/m 29,0 km/h (5 Bft) 100,00 %
24.10.2020 12:42 13,6 C 13,3 C 13,4 C 90 % 1013,1 hPa 0,0 l/m 0 min 0 min 69 W/m 35,4 km/h (5 Bft) 95,74 %
24.10.2020 12:40 13,6 C 13,3 C 13,4 C 90 % 1013,1 hPa 0,0 l/m 0 min 0 min 70 W/m 32,2 km/h (5 Bft) 97,87 %
24.10.2020 12:38 13,6 C 13,3 C 12,8 C 90 % 1013,1 hPa 0,0 l/m 0 min 0 min 70 W/m 38,6 km/h (5 Bft) 98,11 %
24.10.2020 12:36 13,6 C 13,3 C 12,8 C 90 % 1013,2 hPa 0,0 l/m 0 min 0 min 65 W/m 35,4 km/h (5 Bft) 95,74 %
24.10.2020 12:34 13,6 C 13,3 C 12,8 C 90 % 1013,2 hPa 0,0 l/m 0 min 0 min 59 W/m 41,8 km/h (6 Bft) 97,87 %
24.10.2020 12:32 13,6 C 12,8 C 12,8 C 90 % 1013,2 hPa 0,0 l/m 0 min 0 min 60 W/m 32,2 km/h (5 Bft) 97,87 %
24.10.2020 12:30 13,7 C 12,8 C 12,8 C 90 % 1013,2 hPa 0,0 l/m 0 min 0 min 64 W/m 38,6 km/h (5 Bft) 97,83 %
24.10.2020 12:28 13,7 C 12,8 C 12,8 C 90 % 1013,2 hPa 0,0 l/m 0 min 0 min 80 W/m 19,3 km/h (3 Bft) 97,87 %
24.10.2020 12:26 13,6 C 12,8 C 12,8 C 90 % 1013,2 hPa 0,0 l/m 0 min 0 min 87 W/m 22,5 km/h (4 Bft) 97,87 %
24.10.2020 12:24 13,6 C 13,3 C 13,4 C 90 % 1013,2 hPa 0,0 l/m 0 min 0 min 97 W/m 35,4 km/h (5 Bft) 97,87 %
24.10.2020 12:22 13,6 C 13,3 C 13,4 C 90 % 1013,1 hPa 0,0 l/m 0 min 0 min 117 W/m 3,2 km/h (1 Bft) 97,87 %
24.10.2020 12:20 13,6 C 13,3 C 13,4 C 90 % 1013,1 hPa 0,0 l/m 0 min 0 min 105 W/m 22,5 km/h (4 Bft) 97,87 %
24.10.2020 12:18 13,6 C 13,3 C 13,4 C 90 % 1013,1 hPa 0,0 l/m 0 min 0 min 80 W/m 19,3 km/h (3 Bft) 93,48 %
24.10.2020 12:16 13,6 C 13,3 C 12,8 C 90 % 1013,1 hPa 0,0 l/m 0 min 0 min 68 W/m 22,5 km/h (4 Bft) 97,92 %
24.10.2020 12:14 13,6 C 13,3 C 12,8 C 90 % 1013,1 hPa 0,0 l/m 0 min 0 min 82 W/m 19,3 km/h (3 Bft) 97,83 %
24.10.2020 12:12 13,6 C 12,8 C 13,4 C 90 % 1013,1 hPa 0,0 l/m 0 min 0 min 96 W/m 25,7 km/h (4 Bft) 95,74 %
24.10.2020 12:10 13,6 C 13,3 C 13,4 C 90 % 1013,3 hPa 0,0 l/m 0 min 0 min 123 W/m 32,2 km/h (5 Bft) 97,87 %
24.10.2020 12:08 13,6 C 13,9 C 13,4 C 90 % 1013,1 hPa 0,0 l/m 0 min 0 min 107 W/m 29,0 km/h (5 Bft) 97,89 %
24.10.2020 12:04 13,5 C 13,9 C 13,4 C 91 % 1013,1 hPa 0,0 l/m 0 min 0 min 113 W/m 19,3 km/h (3 Bft) 97,83 %
24.10.2020 12:02 13,5 C 13,3 C 13,4 C 91 % 1013,1 hPa 0,0 l/m 0 min 0 min 120 W/m 25,7 km/h (4 Bft) 93,75 %
24.10.2020 12:00 13,5 C 13,3 C 13,4 C 91 % 1013,1 hPa 0,0 l/m 0 min 0 min 107 W/m 22,5 km/h (4 Bft) 97,87 %
24.10.2020 11:58 13,5 C 13,3 C 13,4 C 91 % 1013,1 hPa 0,0 l/m 0 min 0 min 129 W/m 22,5 km/h (4 Bft) 97,87 %
24.10.2020 11:56 13,5 C 13,3 C 13,4 C 91 % 1013,1 hPa 0,0 l/m 0 min 0 min 151 W/m 29,0 km/h (5 Bft) 97,87 %
24.10.2020 11:54 13,5 C 13,3 C 13,4 C 91 % 1013,2 hPa 0,0 l/m 0 min 0 min 157 W/m 41,8 km/h (6 Bft) 97,87 %
24.10.2020 11:52 13,5 C 12,8 C 12,8 C 91 % 1013,3 hPa 0,0 l/m 0 min 0 min 153 W/m 19,3 km/h (3 Bft) 100,00 %
24.10.2020 11:50 13,5 C 12,8 C 12,8 C 91 % 1013,2 hPa 0,0 l/m 0 min 0 min 118 W/m 35,4 km/h (5 Bft) 100,00 %
24.10.2020 11:48 13,5 C 13,3 C 12,8 C 91 % 1013,1 hPa 0,0 l/m 0 min 0 min 123 W/m 29,0 km/h (5 Bft) 100,00 %
24.10.2020 11:46 13,5 C 13,3 C 12,8 C 91 % 1013,1 hPa 0,0 l/m 0 min 0 min 101 W/m 29,0 km/h (5 Bft) 96,75 %
24.10.2020 11:40 13,5 C 12,8 C 12,8 C 91 % 1013,2 hPa 0,0 l/m 0 min 0 min 175 W/m 22,5 km/h (4 Bft) 98,25 %
24.10.2020 11:35 13,5 C 12,2 C 12,2 C 90 % 1013,2 hPa 0,0 l/m 0 min 0 min 116 W/m 29,0 km/h (5 Bft) 100,00 %
24.10.2020 11:30 13,5 C 12,8 C 12,8 C 90 % 1013,1 hPa 0,0 l/m 0 min 0 min 97 W/m 25,7 km/h (4 Bft) 100,00 %
24.10.2020 11:28 13,5 C 12,8 C 12,8 C 90 % 1013,2 hPa 0,0 l/m 0 min 0 min 97 W/m 25,7 km/h (4 Bft) 97,87 %
24.10.2020 11:26 13,5 C 12,8 C 12,8 C 90 % 1013,1 hPa 0,0 l/m 0 min 0 min 100 W/m 25,7 km/h (4 Bft) 95,74 %
24.10.2020 11:24 13,5 C 12,8 C 12,8 C 90 % 1013,1 hPa 0,0 l/m 0 min 0 min 91 W/m 32,2 km/h (5 Bft) 95,65 %
24.10.2020 11:22 13,5 C 12,8 C 12,8 C 90 % 1013,1 hPa 0,0 l/m 0 min 0 min 88 W/m 29,0 km/h (5 Bft) 95,74 %
24.10.2020 11:20 13,5 C 13,3 C 13,4 C 90 % 1013,1 hPa 0,0 l/m 0 min 0 min 102 W/m 25,7 km/h (4 Bft) 95,74 %
24.10.2020 11:18 13,5 C 13,3 C 13,4 C 90 % 1013,2 hPa 0,0 l/m 0 min 0 min 105 W/m 29,0 km/h (5 Bft) 95,74 %
24.10.2020 11:16 13,5 C 13,3 C 13,4 C 91 % 1013,1 hPa 0,0 l/m 0 min 0 min 108 W/m 38,6 km/h (5 Bft) 95,74 %
24.10.2020 11:14 13,5 C 13,9 C 12,8 C 91 % 1013,0 hPa 0,0 l/m 0 min 0 min 100 W/m 38,6 km/h (5 Bft) 97,87 %
24.10.2020 11:12 13,4 C 13,3 C 12,8 C 92 % 1013,0 hPa 0,0 l/m 0 min 0 min 89 W/m 6,4 km/h (2 Bft) 93,48 %
24.10.2020 11:10 13,4 C 13,3 C 12,8 C 92 % 1013,0 hPa 0,0 l/m 0 min 0 min 78 W/m 29,0 km/h (5 Bft) 95,74 %
24.10.2020 11:08 13,4 C 13,3 C 12,8 C 92 % 1013,0 hPa 0,0 l/m 0 min 0 min 74 W/m 22,5 km/h (4 Bft) 95,74 %
24.10.2020 11:06 13,4 C 13,3 C 12,8 C 93 % 1013,0 hPa 0,0 l/m 0 min 0 min 74 W/m 25,7 km/h (4 Bft) 95,74 %
24.10.2020 11:04 13,4 C 13,3 C 12,8 C 93 % 1012,9 hPa 0,0 l/m 0 min 0 min 79 W/m 19,3 km/h (3 Bft) 95,74 %
24.10.2020 11:02 13,4 C 13,3 C 12,8 C 93 % 1012,9 hPa 0,0 l/m 0 min 0 min 83 W/m 12,9 km/h (3 Bft) 93,62 %
24.10.2020 11:00 13,4 C 13,3 C 12,8 C 93 % 1012,9 hPa 0,0 l/m 0 min 0 min 86 W/m 25,7 km/h (4 Bft) 93,48 %
24.10.2020 10:58 13,4 C 13,3 C 12,8 C 94 % 1012,8 hPa 0,0 l/m 0 min 0 min 83 W/m 0,0 km/h (0 Bft) 95,74 %
24.10.2020 10:56 13,3 C 13,3 C 12,8 C 94 % 1012,9 hPa 0,0 l/m 0 min 0 min 76 W/m 12,9 km/h (3 Bft) 95,74 %
24.10.2020 10:54 13,3 C 13,3 C 12,8 C 94 % 1012,9 hPa 0,0 l/m 0 min 0 min 76 W/m 22,5 km/h (4 Bft) 97,87 %
24.10.2020 10:52 13,3 C 13,3 C 12,8 C 95 % 1012,9 hPa 0,0 l/m 0 min 0 min 89 W/m 12,9 km/h (3 Bft) 95,74 %
24.10.2020 10:50 13,3 C 13,3 C 12,8 C 95 % 1012,8 hPa 0,0 l/m 0 min 0 min 86 W/m 0,0 km/h (0 Bft) 97,83 %
24.10.2020 10:48 13,2 C 13,9 C 12,8 C 95 % 1012,9 hPa 0,0 l/m 0 min 0 min 110 W/m 3,2 km/h (1 Bft) 97,87 %
24.10.2020 10:46 13,2 C 13,9 C 12,8 C 95 % 1013,0 hPa 0,0 l/m 0 min 0 min 119 W/m 12,9 km/h (3 Bft) 93,62 %
24.10.2020 10:44 13,1 C 13,3 C 12,8 C 96 % 1013,0 hPa 0,0 l/m 0 min 0 min 105 W/m 3,2 km/h (1 Bft) 97,87 %
24.10.2020 10:42 13,1 C 13,3 C 12,8 C 96 % 1012,9 hPa 0,0 l/m 0 min 0 min 96 W/m 19,3 km/h (3 Bft) 97,87 %
24.10.2020 10:40 13,0 C 13,3 C 12,8 C 96 % 1012,9 hPa 0,0 l/m 0 min 0 min 103 W/m 16,1 km/h (3 Bft) 97,87 %
24.10.2020 10:38 13,0 C 13,3 C 12,8 C 96 % 1012,9 hPa 0,0 l/m 0 min 0 min 116 W/m 19,3 km/h (3 Bft) 97,83 %
24.10.2020 10:36 13,0 C 13,3 C 12,8 C 97 % 1013,0 hPa 0,0 l/m 0 min 0 min 87 W/m 19,3 km/h (3 Bft) 95,74 %
24.10.2020 10:34 12,9 C 13,3 C 12,8 C 97 % 1013,0 hPa 0,0 l/m 0 min 0 min 79 W/m 19,3 km/h (3 Bft) 97,87 %
24.10.2020 10:32 12,9 C 13,3 C 12,8 C 97 % 1013,0 hPa 0,0 l/m 0 min 0 min 100 W/m 29,0 km/h (5 Bft) 97,87 %
24.10.2020 10:30 12,8 C 13,9 C 12,8 C 97 % 1012,9 hPa 0,0 l/m 0 min 0 min 122 W/m 22,5 km/h (4 Bft) 97,87 %
24.10.2020 10:28 12,8 C 13,9 C 12,8 C 97 % 1012,9 hPa 0,0 l/m 0 min 0 min 127 W/m 32,2 km/h (5 Bft) 97,87 %
24.10.2020 10:26 12,8 C 13,9 C 12,8 C 97 % 1012,9 hPa 0,0 l/m 2 min 0 min 154 W/m 19,3 km/h (3 Bft) 97,83 %
24.10.2020 10:24 12,7 C 13,9 C 12,8 C 98 % 1012,9 hPa 0,0 l/m 2 min 0 min 175 W/m 19,3 km/h (3 Bft) 97,87 %
24.10.2020 10:22 12,6 C 13,9 C 12,8 C 98 % 1012,9 hPa 0,0 l/m 2 min 0 min 144 W/m 16,1 km/h (3 Bft) 97,87 %
24.10.2020 10:20 12,6 C 13,9 C 12,8 C 98 % 1012,9 hPa 0,0 l/m 0 min 0 min 119 W/m 22,5 km/h (4 Bft) 97,87 %
24.10.2020 10:18 12,5 C 13,9 C 12,2 C 98 % 1012,8 hPa 0,0 l/m 0 min 0 min 124 W/m 19,3 km/h (3 Bft) 93,62 %
24.10.2020 10:16 12,5 C 13,3 C 12,2 C 98 % 1012,8 hPa 0,0 l/m 0 min 0 min 100 W/m 19,3 km/h (3 Bft) 97,87 %
24.10.2020 10:14 12,5 C 13,3 C 12,2 C 98 % 1012,9 hPa 0,0 l/m 0 min 0 min 98 W/m 19,3 km/h (3 Bft) 97,83 %
24.10.2020 10:12 12,4 C 13,3 C 11,7 C 98 % 1012,9 hPa 0,0 l/m 0 min 0 min 96 W/m 19,3 km/h (3 Bft) 97,87 %
24.10.2020 10:10 12,4 C 13,3 C 11,7 C 98 % 1012,9 hPa 0,0 l/m 0 min 0 min 102 W/m 3,2 km/h (1 Bft) 95,74 %
24.10.2020 10:08 12,4 C 13,3 C 11,7 C 98 % 1012,9 hPa 0,0 l/m 0 min 0 min 96 W/m 0,0 km/h (0 Bft) 97,87 %
24.10.2020 10:06 12,3 C 12,8 C 11,7 C 99 % 1012,9 hPa 0,0 l/m 0 min 0 min 73 W/m 3,2 km/h (1 Bft) 97,87 %
24.10.2020 10:04 12,3 C 12,8 C 11,7 C 98 % 1013,0 hPa 0,0 l/m 0 min 0 min 62 W/m 16,1 km/h (3 Bft) 95,74 %
24.10.2020 10:02 12,3 C 12,8 C 11,7 C 98 % 1012,9 hPa 0,0 l/m 0 min 0 min 66 W/m 29,0 km/h (5 Bft) 97,83 %
24.10.2020 10:00 12,3 C 12,8 C 11,7 C 98 % 1013,0 hPa 0,0 l/m 0 min 0 min 61 W/m 16,1 km/h (3 Bft) 93,62 %
24.10.2020 09:58 12,3 C 12,8 C 11,7 C 98 % 1013,0 hPa 0,0 l/m 0 min 0 min 52 W/m 16,1 km/h (3 Bft) 95,74 %
24.10.2020 09:56 12,2 C 12,8 C 11,7 C 98 % 1012,9 hPa 0,0 l/m 0 min 0 min 52 W/m 12,9 km/h (3 Bft) 97,87 %
24.10.2020 09:54 12,2 C 12,8 C 11,7 C 99 % 1012,9 hPa 0,0 l/m 0 min 0 min 64 W/m 12,9 km/h (3 Bft) 95,74 %
24.10.2020 09:52 12,1 C 12,8 C 11,7 C 99 % 1013,0 hPa 0,0 l/m 0 min 0 min 63 W/m 12,9 km/h (3 Bft) 97,14 %
24.10.2020 09:50 12,1 C 12,8 C 11,7 C 99 % 1013,0 hPa 0,0 l/m 0 min 0 min 61 W/m 16,1 km/h (3 Bft) 100,00 %
24.10.2020 09:48 12,1 C 12,8 C 11,7 C 99 % 1013,0 hPa 0,0 l/m 0 min 0 min 67 W/m 3,2 km/h (1 Bft) 97,87 %
24.10.2020 09:46 12,1 C 12,2 C 11,7 C 99 % 1013,0 hPa 0,0 l/m 0 min 0 min 67 W/m 9,7 km/h (2 Bft) 93,62 %
24.10.2020 09:44 12,1 C 12,2 C 11,7 C 99 % 1013,0 hPa 0,0 l/m 0 min 0 min 64 W/m 16,1 km/h (3 Bft) 97,87 %
24.10.2020 09:42 12,0 C 12,2 C 11,7 C 99 % 1013,0 hPa 0,0 l/m 0 min 0 min 60 W/m 12,9 km/h (3 Bft) 97,83 %
24.10.2020 09:40 12,0 C 12,2 C 11,7 C 99 % 1013,0 hPa 0,0 l/m 0 min 0 min 63 W/m 22,5 km/h (4 Bft) 97,87 %
24.10.2020 09:38 12,0 C 12,2 C 11,7 C 99 % 1013,0 hPa 0,0 l/m 0 min 0 min 64 W/m 0,0 km/h (0 Bft) 95,74 %
24.10.2020 09:36 12,0 C 12,2 C 11,1 C 99 % 1013,0 hPa 0,0 l/m 0 min 0 min 58 W/m 3,2 km/h (1 Bft) 97,87 %
24.10.2020 09:34 12,0 C 12,2 C 11,1 C 99 % 1013,0 hPa 0,0 l/m 0 min 0 min 53 W/m 0,0 km/h (0 Bft) 97,87 %
24.10.2020 09:32 12,0 C 12,2 C 11,1 C 99 % 1013,0 hPa 0,0 l/m 0 min 0 min 48 W/m 6,4 km/h (2 Bft) 97,92 %
24.10.2020 09:30 12,0 C 12,2 C 11,1 C 99 % 1013,0 hPa 0,0 l/m 0 min 0 min 47 W/m 0,0 km/h (0 Bft) 97,83 %
24.10.2020 09:28 11,9 C 12,2 C 11,1 C 99 % 1012,9 hPa 0,0 l/m 0 min 0 min 47 W/m 0,0 km/h (0 Bft) 97,87 %
24.10.2020 09:26 11,9 C 12,2 C 11,1 C 99 % 1012,9 hPa 0,0 l/m 0 min 0 min 47 W/m 0,0 km/h (0 Bft) 97,87 %
24.10.2020 09:24 11,9 C 12,2 C 11,1 C 99 % 1012,9 hPa 0,0 l/m 0 min 0 min 43 W/m 6,4 km/h (2 Bft) 95,74 %
24.10.2020 09:22 11,9 C 11,7 C 11,1 C 99 % 1012,8 hPa 0,0 l/m 0 min 0 min 43 W/m 0,0 km/h (0 Bft) 95,74 %
24.10.2020 09:20 11,9 C 11,7 C 11,1 C 99 % 1012,9 hPa 0,0 l/m 0 min 0 min 39 W/m 0,0 km/h (0 Bft) 97,87 %
24.10.2020 09:18 11,9 C 11,7 C 11,1 C 99 % 1012,9 hPa 0,0 l/m 0 min 0 min 32 W/m 0,0 km/h (0 Bft) 97,83 %
24.10.2020 09:16 11,9 C 11,7 C 11,1 C 99 % 1012,9 hPa 0,0 l/m 0 min 0 min 32 W/m 0,0 km/h (0 Bft) 97,87 %
24.10.2020 09:14 11,9 C 11,7 C 11,1 C 99 % 1012,9 hPa 0,0 l/m 0 min 0 min 33 W/m 0,0 km/h (0 Bft) 100,00 %
24.10.2020 09:12 11,8 C 11,7 C 11,1 C 99 % 1012,9 hPa 0,0 l/m 0 min 0 min 31 W/m 0,0 km/h (0 Bft) 100,00 %
24.10.2020 09:10 11,8 C 11,7 C 11,1 C 99 % 1012,9 hPa 0,0 l/m 0 min 0 min 32 W/m 0,0 km/h (0 Bft) 100,00 %
24.10.2020 09:08 11,8 C 11,7 C 11,1 C 99 % 1012,8 hPa 0,0 l/m 0 min 0 min 32 W/m 3,2 km/h (1 Bft) 100,00 %
24.10.2020 09:06 11,8 C 11,7 C 11,1 C 99 % 1012,8 hPa 0,0 l/m 0 min 0 min 31 W/m 0,0 km/h (0 Bft) 100,00 %
24.10.2020 09:04 11,8 C 11,7 C 11,1 C 99 % 1012,8 hPa 0,0 l/m 0 min 0 min 26 W/m 0,0 km/h (0 Bft) 100,00 %
24.10.2020 09:02 11,8 C 11,7 C 11,1 C 99 % 1012,8 hPa 0,0 l/m 0 min 0 min 23 W/m 0,0 km/h (0 Bft) 100,00 %
24.10.2020 09:00 11,8 C 11,7 C 11,1 C 99 % 1012,8 hPa 0,0 l/m 0 min 0 min 19 W/m 3,2 km/h (1 Bft) 100,00 %
24.10.2020 08:58 11,8 C 11,7 C 11,1 C 99 % 1012,8 hPa 0,0 l/m 0 min 0 min 19 W/m 0,0 km/h (0 Bft) 97,87 %
24.10.2020 08:56 11,8 C 11,7 C 11,1 C 99 % 1012,8 hPa 0,0 l/m 0 min 0 min 19 W/m 0,0 km/h (0 Bft) 100,00 %
24.10.2020 08:54 11,8 C 11,7 C 11,1 C 99 % 1012,8 hPa 0,0 l/m 0 min 0 min 16 W/m 0,0 km/h (0 Bft) 97,87 %
24.10.2020 08:52 11,8 C 11,7 C 11,1 C 99 % 1012,8 hPa 0,0 l/m 0 min 0 min 14 W/m 3,2 km/h (1 Bft) 97,87 %
24.10.2020 08:50 11,8 C 11,7 C 11,1 C 99 % 1012,8 hPa 0,0 l/m 0 min 0 min 15 W/m 3,2 km/h (1 Bft) 97,87 %
24.10.2020 08:48 11,8 C 11,7 C 11,1 C 99 % 1012,7 hPa 0,0 l/m 0 min 0 min 16 W/m 0,0 km/h (0 Bft) 97,87 %
24.10.2020 08:46 11,8 C 11,7 C 11,1 C 99 % 1012,7 hPa 0,0 l/m 0 min 0 min 15 W/m 0,0 km/h (0 Bft) 97,87 %
24.10.2020 08:44 11,8 C 11,7 C 11,1 C 99 % 1012,7 hPa 0,0 l/m 0 min 0 min 12 W/m 0,0 km/h (0 Bft) 97,83 %
24.10.2020 08:42 11,8 C 11,7 C 11,1 C 99 % 1012,8 hPa 0,0 l/m 0 min 0 min 11 W/m 0,0 km/h (0 Bft) 97,87 %
24.10.2020 08:40 11,8 C 11,7 C 11,1 C 99 % 1012,8 hPa 0,0 l/m 0 min 0 min 12 W/m 0,0 km/h (0 Bft) 97,87 %
24.10.2020 08:38 11,8 C 11,7 C 11,1 C 99 % 1012,8 hPa 0,0 l/m 0 min 0 min 12 W/m 0,0 km/h (0 Bft) 95,74 %
24.10.2020 08:36 11,8 C 11,7 C 11,1 C 99 % 1012,8 hPa 0,0 l/m 0 min 0 min 11 W/m 0,0 km/h (0 Bft) 95,74 %
24.10.2020 08:34 11,7 C 11,7 C 10,6 C 99 % 1012,8 hPa 0,0 l/m 0 min 0 min 11 W/m 0,0 km/h (0 Bft) 97,87 %
24.10.2020 08:32 11,8 C 11,7 C 10,6 C 99 % 1012,7 hPa 0,0 l/m 0 min 0 min 9 W/m 0,0 km/h (0 Bft) 97,87 %
24.10.2020 08:30 11,8 C 11,7 C 11,1 C 99 % 1012,7 hPa 0,0 l/m 0 min 0 min 9 W/m 3,2 km/h (1 Bft) 97,87 %
24.10.2020 08:28 11,8 C 11,7 C 11,1 C 99 % 1012,7 hPa 0,0 l/m 0 min 0 min 7 W/m 3,2 km/h (1 Bft) 97,87 %
24.10.2020 08:26 11,7 C 11,1 C 10,6 C 99 % 1012,8 hPa 0,0 l/m 0 min 0 min 6 W/m 0,0 km/h (0 Bft) 97,87 %
24.10.2020 08:24 11,8 C 11,1 C 11,1 C 99 % 1012,8 hPa 0,0 l/m 0 min 0 min 5 W/m 0,0 km/h (0 Bft) 95,74 %
24.10.2020 08:22 11,8 C 11,1 C 11,1 C 99 % 1012,7 hPa 0,0 l/m 0 min 0 min 3 W/m 0,0 km/h (0 Bft) 97,83 %
24.10.2020 08:20 11,8 C 11,1 C 10,6 C 99 % 1012,8 hPa 0,0 l/m 0 min 0 min 0 W/m 6,4 km/h (2 Bft) 97,87 %
24.10.2020 08:18 11,7 C 11,1 C 10,6 C 99 % 1012,8 hPa 0,0 l/m 0 min 0 min 0 W/m 0,0 km/h (0 Bft) 95,74 %
24.10.2020 08:16 11,7 C 11,1 C 10,6 C 99 % 1012,8 hPa 0,0 l/m 0 min 0 min 0 W/m 3,2 km/h (1 Bft) 97,87 %
24.10.2020 08:14 11,8 C 11,1 C 10,6 C 99 % 1012,7 hPa 0,0 l/m 0 min 0 min 0 W/m 0,0 km/h (0 Bft) 97,87 %
24.10.2020 08:12 11,8 C 11,1 C 10,6 C 99 % 1012,8 hPa 0,0 l/m 0 min 0 min 0 W/m 3,2 km/h (1 Bft) 97,87 %
24.10.2020 08:10 11,8 C 11,1 C 10,6 C 99 % 1012,8 hPa 0,0 l/m 0 min 0 min 0 W/m 0,0 km/h (0 Bft) 97,83 %
24.10.2020 08:08 11,8 C 11,1 C 11,1 C 99 % 1012,8 hPa 0,0 l/m 0 min 0 min 0 W/m 12,9 km/h (3 Bft) 95,74 %
24.10.2020 08:06 11,8 C 11,1 C 11,1 C 99 % 1012,7 hPa 0,0 l/m 0 min 0 min 0 W/m 16,1 km/h (3 Bft) 100,00 %
24.10.2020 08:04 11,8 C 11,1 C 10,6 C 99 % 1012,7 hPa 0,0 l/m 0 min 0 min 0 W/m 3,2 km/h (1 Bft) 100,00 %
24.10.2020 08:02 11,8 C 11,1 C 10,6 C 99 % 1012,8 hPa 0,0 l/m 0 min 0 min 0 W/m 0,0 km/h (0 Bft) 97,92 %
24.10.2020 08:00 11,7 C 11,1 C 10,6 C 99 % 1012,8 hPa 0,0 l/m 0 min 0 min 0 W/m 0,0 km/h (0 Bft) 97,87 %
24.10.2020 07:58 11,7 C 11,1 C 10,6 C 99 % 1012,7 hPa 0,0 l/m 0 min 0 min 0 W/m 0,0 km/h (0 Bft) 97,83 %
24.10.2020 07:56 11,7 C 11,1 C 10,6 C 99 % 1012,7 hPa 0,0 l/m 0 min 0 min 0 W/m 0,0 km/h (0 Bft) 100,00 %
24.10.2020 07:54 11,7 C 11,1 C 10,6 C 99 % 1012,8 hPa 0,0 l/m 0 min 0 min 0 W/m 16,1 km/h (3 Bft) 100,00 %
24.10.2020 07:52 11,7 C 11,1 C 11,1 C 99 % 1012,8 hPa 0,0 l/m 0 min 0 min 0 W/m 12,9 km/h (3 Bft) 100,00 %
24.10.2020 07:50 11,7 C 11,1 C 10,6 C 99 % 1012,7 hPa 0,0 l/m 0 min 0 min 0 W/m 3,2 km/h (1 Bft) 100,00 %
24.10.2020 07:48 11,8 C 11,1 C 10,6 C 99 % 1012,7 hPa 0,0 l/m 0 min 0 min 0 W/m 0,0 km/h (0 Bft) 97,87 %
24.10.2020 07:46 11,7 C 11,1 C 10,6 C 99 % 1012,7 hPa 0,0 l/m 0 min 0 min 0 W/m 0,0 km/h (0 Bft) 97,83 %
24.10.2020 07:44 11,7 C 11,1 C 10,6 C 99 % 1012,7 hPa 0,0 l/m 0 min 0 min 0 W/m 0,0 km/h (0 Bft) 100,00 %
24.10.2020 07:42 11,8 C 11,1 C 10,6 C 99 % 1012,7 hPa 0,0 l/m 0 min 0 min 0 W/m 3,2 km/h (1 Bft) 100,00 %
24.10.2020 07:40 11,8 C 11,1 C 10,6 C 99 % 1012,7 hPa 0,0 l/m 0 min 0 min 0 W/m 3,2 km/h (1 Bft) 100,00 %
24.10.2020 07:38 11,8 C 11,1 C 10,6 C 99 % 1012,7 hPa 0,0 l/m 0 min 0 min 0 W/m 6,4 km/h (2 Bft) 100,00 %
24.10.2020 07:36 11,8 C 11,1 C 10,6 C 99 % 1012,7 hPa 0,0 l/m 0 min 0 min 0 W/m 6,4 km/h (2 Bft) 100,00 %
24.10.2020 07:34 11,8 C 11,1 C 10,6 C 99 % 1012,7 hPa 0,0 l/m 0 min 0 min 0 W/m 6,4 km/h (2 Bft) 100,00 %
24.10.2020 07:32 11,8 C 11,1 C 10,6 C 99 % 1012,7 hPa 0,0 l/m 0 min 0 min 0 W/m 6,4 km/h (2 Bft) 97,83 %
24.10.2020 07:30 11,8 C 11,1 C 10,6 C 99 % 1012,7 hPa 0,0 l/m 0 min 0 min 0 W/m 3,2 km/h (1 Bft) 100,00 %
24.10.2020 07:28 11,8 C 11,1 C 10,6 C 99 % 1012,8 hPa 0,0 l/m 0 min 0 min 0 W/m 0,0 km/h (0 Bft) 97,87 %
24.10.2020 07:26 11,8 C 11,1 C 10,6 C 99 % 1012,8 hPa 0,0 l/m 0 min 0 min 0 W/m 6,4 km/h (2 Bft) 100,00 %
24.10.2020 07:24 11,8 C 11,1 C 11,1 C 99 % 1012,7 hPa 0,0 l/m 0 min 0 min 0 W/m 0,0 km/h (0 Bft) 97,87 %
24.10.2020 07:22 11,8 C 11,1 C 11,1 C 99 % 1012,8 hPa 0,0 l/m 0 min 0 min 0 W/m 0,0 km/h (0 Bft) 100,00 %
24.10.2020 07:20 11,8 C 11,1 C 10,6 C 99 % 1012,8 hPa 0,0 l/m 0 min 0 min 0 W/m 3,2 km/h (1 Bft) 100,00 %
24.10.2020 07:18 11,8 C 11,1 C 11,1 C 99 % 1012,9 hPa 0,0 l/m 0 min 0 min 0 W/m 3,2 km/h (1 Bft) 97,87 %
24.10.2020 07:16 11,8 C 11,1 C 11,1 C 99 % 1012,9 hPa 0,0 l/m 0 min 0 min 0 W/m 3,2 km/h (1 Bft) 95,74 %
24.10.2020 07:14 11,8 C 11,1 C 11,1 C 99 % 1012,8 hPa 0,0 l/m 0 min 0 min 0 W/m 12,9 km/h (3 Bft) 97,87 %
24.10.2020 07:12 11,8 C 11,1 C 11,1 C 99 % 1012,8 hPa 0,0 l/m 0 min 0 min 0 W/m 6,4 km/h (2 Bft) 97,87 %
24.10.2020 07:10 11,8 C 11,1 C 11,1 C 99 % 1012,9 hPa 0,0 l/m 0 min 0 min 0 W/m 3,2 km/h (1 Bft) 95,74 %
24.10.2020 07:08 11,8 C 11,1 C 11,1 C 99 % 1012,8 hPa 0,0 l/m 0 min 0 min 0 W/m 0,0 km/h (0 Bft) 97,83 %
24.10.2020 07:06 11,8 C 11,1 C 11,1 C 99 % 1012,8 hPa 0,0 l/m 0 min 0 min 0 W/m 0,0 km/h (0 Bft) 95,74 %
24.10.2020 07:04 11,8 C 11,1 C 11,1 C 99 % 1012,8 hPa 0,0 l/m 0 min 0 min 0 W/m 3,2 km/h (1 Bft) 97,87 %
24.10.2020 07:02 11,8 C 11,1 C 11,1 C 99 % 1012,8 hPa 0,0 l/m 0 min 0 min 0 W/m 9,7 km/h (2 Bft) 97,87 %
24.10.2020 07:00 11,8 C 11,1 C 11,1 C 99 % 1012,8 hPa 0,0 l/m 0 min 0 min 0 W/m 12,9 km/h (3 Bft) 95,74 %
24.10.2020 06:58 11,8 C 11,1 C 11,1 C 99 % 1012,9 hPa 0,0 l/m 0 min 0 min 0 W/m 0,0 km/h (0 Bft) 97,87 %
24.10.2020 06:56 11,8 C 11,1 C 11,1 C 99 % 1012,8 hPa 0,0 l/m 0 min 0 min 0 W/m 0,0 km/h (0 Bft) 97,83 %
24.10.2020 06:54 11,8 C 11,1 C 11,1 C 99 % 1012,8 hPa 0,0 l/m 0 min 0 min 0 W/m 0,0 km/h (0 Bft) 97,87 %
24.10.2020 06:52 11,8 C 11,1 C 11,1 C 99 % 1012,7 hPa 0,0 l/m 0 min 0 min 0 W/m 0,0 km/h (0 Bft) 97,87 %
24.10.2020 06:50 11,8 C 11,1 C 11,1 C 99 % 1012,7 hPa 0,0 l/m 0 min 0 min 0 W/m 16,1 km/h (3 Bft) 95,74 %
24.10.2020 06:48 11,8 C 11,1 C 11,1 C 99 % 1012,7 hPa 0,0 l/m 0 min 0 min 0 W/m 0,0 km/h (0 Bft) 97,87 %
24.10.2020 06:46 11,8 C 11,1 C 11,1 C 99 % 1012,8 hPa 0,0 l/m 0 min 0 min 0 W/m 0,0 km/h (0 Bft) 97,87 %
24.10.2020 06:44 11,8 C 11,1 C 11,1 C 100 % 1012,8 hPa 0,0 l/m 0 min 0 min 0 W/m 0,0 km/h (0 Bft) 97,83 %
24.10.2020 06:42 11,8 C 11,1 C 11,1 C 99 % 1012,8 hPa 0,0 l/m 0 min 0 min 0 W/m 0,0 km/h (0 Bft) 97,87 %
24.10.2020 06:40 11,7 C 11,1 C 11,1 C 99 % 1012,8 hPa 0,0 l/m 0 min 0 min 0 W/m 0,0 km/h (0 Bft) 97,87 %
24.10.2020 06:38 11,8 C 11,1 C 11,1 C 100 % 1012,8 hPa 0,0 l/m 0 min 0 min 0 W/m 0,0 km/h (0 Bft) 97,87 %
24.10.2020 06:36 11,7 C 11,1 C 11,1 C 100 % 1012,8 hPa 0,0 l/m 0 min 0 min 0 W/m 0,0 km/h (0 Bft) 97,87 %
24.10.2020 06:34 11,8 C 11,1 C 10,6 C 100 % 1012,8 hPa 0,0 l/m 0 min 0 min 0 W/m 0,0 km/h (0 Bft) 97,83 %
24.10.2020 06:32 11,7 C 11,1 C 11,1 C 99 % 1012,8 hPa 0,0 l/m 0 min 0 min 0 W/m 6,4 km/h (2 Bft) 97,87 %
24.10.2020 06:30 11,7 C 11,1 C 11,1 C 99 % 1012,8 hPa 0,0 l/m 0 min 0 min 0 W/m 3,2 km/h (1 Bft) 100,00 %
24.10.2020 06:28 11,7 C 11,1 C 11,1 C 99 % 1012,8 hPa 0,0 l/m 0 min 0 min 0 W/m 3,2 km/h (1 Bft) 97,87 %
24.10.2020 06:26 11,7 C 11,1 C 11,1 C 99 % 1012,8 hPa 0,0 l/m 0 min 0 min 0 W/m 12,9 km/h (3 Bft) 100,00 %
24.10.2020 06:24 11,7 C 11,1 C 11,1 C 99 % 1012,9 hPa 0,0 l/m 0 min 0 min 0 W/m 0,0 km/h (0 Bft) 100,00 %
24.10.2020 06:22 11,7 C 11,1 C 11,1 C 99 % 1012,9 hPa 0,0 l/m 0 min 0 min 0 W/m 3,2 km/h (1 Bft) 97,83 %
24.10.2020 06:20 11,7 C 11,1 C 11,1 C 99 % 1012,8 hPa 0,0 l/m 0 min 0 min 0 W/m 0,0 km/h (0 Bft) 100,00 %
24.10.2020 06:18 11,7 C 11,1 C 11,1 C 99 % 1012,9 hPa 0,0 l/m 0 min 0 min 0 W/m 0,0 km/h (0 Bft) 95,74 %
24.10.2020 06:16 11,6 C 11,1 C 11,1 C 99 % 1012,9 hPa 0,0 l/m 0 min 0 min 0 W/m 0,0 km/h (0 Bft) 97,83 %
24.10.2020 06:14 11,6 C 11,1 C 11,1 C 99 % 1012,9 hPa 0,0 l/m 0 min 0 min 0 W/m 3,2 km/h (1 Bft) 97,87 %
24.10.2020 06:12 11,6 C 11,1 C 11,1 C 99 % 1012,8 hPa 0,0 l/m 0 min 0 min 0 W/m 6,4 km/h (2 Bft) 97,87 %
24.10.2020 06:10 11,6 C 11,1 C 11,1 C 99 % 1012,8 hPa 0,0 l/m 0 min 0 min 0 W/m 6,4 km/h (2 Bft) 95,65 %
24.10.2020 06:08 11,6 C 11,1 C 11,1 C 99 % 1012,8 hPa 0,0 l/m 0 min 0 min 0 W/m 0,0 km/h (0 Bft) 95,83 %
24.10.2020 06:07 11,5 C 11,1 C 11,1 C 99 % 1012,8 hPa 0,0 l/m 0 min 0 min 0 W/m 12,9 km/h (3 Bft) 95,71 %
24.10.2020 06:04 11,5 C 11,1 C 11,1 C 99 % 1012,8 hPa 0,0 l/m 0 min 0 min 0 W/m 0,0 km/h (0 Bft) 97,87 %
24.10.2020 06:02 11,5 C 11,1 C 10,6 C 99 % 1012,8 hPa 0,0 l/m 0 min 0 min 0 W/m 3,2 km/h (1 Bft) 95,74 %
24.10.2020 06:00 11,5 C 11,1 C 10,6 C 99 % 1012,9 hPa 0,0 l/m 0 min 0 min 0 W/m 0,0 km/h (0 Bft) 95,74 %
24.10.2020 05:58 11,4 C 11,1 C 10,6 C 99 % 1012,8 hPa 0,0 l/m 0 min 0 min 0 W/m 3,2 km/h (1 Bft) 97,83 %
24.10.2020 05:56 11,4 C 11,1 C 10,6 C 99 % 1012,8 hPa 0,0 l/m 0 min 0 min 0 W/m 6,4 km/h (2 Bft) 95,74 %
24.10.2020 05:54 11,4 C 11,1 C 10,6 C 99 % 1012,8 hPa 0,0 l/m 0 min 0 min 0 W/m 19,3 km/h (3 Bft) 97,87 %
24.10.2020 05:52 11,3 C 11,1 C 10,6 C 99 % 1012,8 hPa 0,0 l/m 0 min 0 min 0 W/m 3,2 km/h (1 Bft) 95,74 %
24.10.2020 05:50 11,3 C 11,1 C 10,6 C 99 % 1012,8 hPa 0,0 l/m 0 min 0 min 0 W/m 12,9 km/h (3 Bft) 95,74 %
24.10.2020 05:48 11,3 C 10,6 C 10,6 C 99 % 1012,8 hPa 0,0 l/m 0 min 0 min 0 W/m 12,9 km/h (3 Bft) 97,87 %
24.10.2020 05:46 11,2 C 10,6 C 10,6 C 99 % 1012,8 hPa 0,0 l/m 0 min 0 min 0 W/m 6,4 km/h (2 Bft) 95,65 %
24.10.2020 05:44 11,2 C 10,6 C 10,6 C 99 % 1012,8 hPa 0,0 l/m 0 min 0 min 0 W/m 0,0 km/h (0 Bft) 93,62 %
24.10.2020 05:42 11,1 C 10,6 C 10,6 C 99 % 1012,7 hPa 0,0 l/m 0 min 0 min 0 W/m 0,0 km/h (0 Bft) 95,74 %
24.10.2020 05:40 11,1 C 10,6 C 10,6 C 99 % 1012,7 hPa 0,0 l/m 0 min 0 min 0 W/m 0,0 km/h (0 Bft) 95,74 %
24.10.2020 05:38 11,1 C 10,6 C 10,6 C 99 % 1012,7 hPa 0,0 l/m 0 min 0 min 0 W/m 0,0 km/h (0 Bft) 95,74 %
24.10.2020 05:36 11,1 C 10,6 C 10,6 C 99 % 1012,7 hPa 0,0 l/m 0 min 0 min 0 W/m 0,0 km/h (0 Bft) 95,65 %
24.10.2020 05:34 11,1 C 10,6 C 10,6 C 99 % 1012,7 hPa 0,0 l/m 0 min 0 min 0 W/m 0,0 km/h (0 Bft) 95,74 %
24.10.2020 05:32 11,1 C 10,6 C 10,6 C 99 % 1012,6 hPa 0,0 l/m 0 min 0 min 0 W/m 0,0 km/h (0 Bft) 95,74 %
24.10.2020 05:30 11,1 C 10,6 C 10,6 C 99 % 1012,7 hPa 0,0 l/m 0 min 0 min 0 W/m 3,2 km/h (1 Bft) 95,74 %
24.10.2020 05:28 11,1 C 10,6 C 10,6 C 99 % 1012,6 hPa 0,0 l/m 0 min 0 min 0 W/m 3,2 km/h (1 Bft) 97,87 %
24.10.2020 05:26 11,0 C 10,0 C 10,6 C 99 % 1012,6 hPa 0,0 l/m 0 min 0 min 0 W/m 0,0 km/h (0 Bft) 95,74 %
24.10.2020 05:24 11,0 C 10,6 C 10,6 C 99 % 1012,6 hPa 0,0 l/m 0 min 0 min 0 W/m 0,0 km/h (0 Bft) 95,65 %
24.10.2020 05:22 11,0 C 10,6 C 10,6 C 99 % 1012,6 hPa 0,0 l/m 0 min 0 min 0 W/m 6,4 km/h (2 Bft) 97,87 %
24.10.2020 05:20 11,0 C 10,6 C 10,0 C 99 % 1012,6 hPa 0,0 l/m 0 min 0 min 0 W/m 12,9 km/h (3 Bft) 97,87 %
24.10.2020 05:18 11,0 C 10,0 C 10,0 C 99 % 1012,6 hPa 0,0 l/m 0 min 0 min 0 W/m 9,7 km/h (2 Bft) 97,87 %
24.10.2020 05:16 11,0 C 10,0 C 10,0 C 99 % 1012,5 hPa 0,0 l/m 0 min 0 min 0 W/m 0,0 km/h (0 Bft) 95,74 %
24.10.2020 05:14 11,0 C 10,0 C 10,0 C 99 % 1012,5 hPa 0,0 l/m 0 min 0 min 0 W/m 0,0 km/h (0 Bft) 97,87 %
24.10.2020 05:12 11,0 C 10,0 C 10,0 C 99 % 1012,5 hPa 0,0 l/m 0 min 0 min 0 W/m 0,0 km/h (0 Bft) 97,83 %
24.10.2020 05:10 11,0 C 10,0 C 10,0 C 99 % 1012,5 hPa 0,0 l/m 0 min 0 min 0 W/m 0,0 km/h (0 Bft) 97,87 %
24.10.2020 05:08 11,0 C 10,0 C 10,0 C 99 % 1012,6 hPa 0,0 l/m 0 min 0 min 0 W/m 0,0 km/h (0 Bft) 97,87 %
24.10.2020 05:06 11,0 C 10,0 C 10,0 C 99 % 1012,6 hPa 0,0 l/m 0 min 0 min 0 W/m 0,0 km/h (0 Bft) 97,87 %
24.10.2020 05:04 11,0 C 10,0 C 10,0 C 99 % 1012,6 hPa 0,0 l/m 0 min 0 min 0 W/m 0,0 km/h (0 Bft) 95,74 %
24.10.2020 05:02 11,1 C 10,0 C 10,0 C 99 % 1012,6 hPa 0,0 l/m 0 min 0 min 0 W/m 0,0 km/h (0 Bft) 95,74 %
24.10.2020 05:00 11,1 C 10,0 C 10,0 C 99 % 1012,6 hPa 0,0 l/m 0 min 0 min 0 W/m 0,0 km/h (0 Bft) 97,83 %
_ Min-Zeit 05:04 05:00 05:00 14:40 04:06 - - - - 05:00 22:16
Minimum _ 11,0 C 10,0 C 10,0 C 82 % 1004,4 hPa - - - - 0,0 km/h (0 Bft) 50,00 %
_ Max-Zeit 15:26 13:32 13:32 06:34 11:52 05:00 10:22 13:06 13:34 14:04 06:20
Maximum _ 16,0 C 17,8 C 15,6 C 100 % 1013,3 hPa 0,0 l/m 2 min 2 min 585 W/m 51,5 km/h
S (7 Bft)
100,00 %
Durchschnitt _ 13,7 C 13,2 C 12,5 C 90 % 1010,7 hPa #0,0 l/m #0 min. #0 min. 0 W/m 14,4 km/h (3 Bft) 97,47 %
© 2020 W. Hausmann